Observation data for Vigo Park on 09/11/2019      Previous  Date  Next       Current Mesonet Observations  Soil Data  Daily Summary Page  Observations in Plain Language
KVP1 110500Z 17009KT 23/16 A301 RMK A01 T02270157  RH  065%=      5-min Rain = 0
KVP1 110501Z 17008KT 23/16 A301 RMK A01 T02270157  RH  065%=      5-min Rain = 0
KVP1 110502Z 17008KT 23/16 A301 RMK A01 T02270157  RH  065%=      5-min Rain = 0
KVP1 110503Z 17009KT 23/16 A301 RMK A01 T02270158  RH  065%=      5-min Rain = 0
KVP1 110504Z 17009KT 23/16 A301 RMK A01 T02270158  RH  065%=      5-min Rain = 0
KVP1 110505Z 17009KT 23/16 A301 RMK A01 T02260157  RH  065%=      5-min Rain = 0
KVP1 110506Z 17009KT 23/16 A301 RMK A01 T02260157  RH  065%=      5-min Rain = 0
KVP1 110507Z 17008KT 23/16 A3009 RMK A01 T02260157  RH  065%=      5-min Rain = 0
KVP1 110508Z 17008KT 23/16 A3009 RMK A01 T02260157  RH  065%=      5-min Rain = 0
KVP1 110509Z 17009KT 23/16 A3009 RMK A01 T02260158  RH  065%=      5-min Rain = 0
KVP1 110510Z 17009KT 23/16 A3009 RMK A01 T02260158  RH  065%=      5-min Rain = 0
KVP1 110511Z 17009KT 23/16 A3009 RMK A01 T02250158  RH  065%=      5-min Rain = 0
KVP1 110512Z 17009KT 23/16 A3009 RMK A01 T02260158  RH  065%=      5-min Rain = 0
KVP1 110513Z 17009KT 23/16 A3009 RMK A01 T02250157  RH  065%=      5-min Rain = 0
KVP1 110514Z 17009KT 23/16 A3009 RMK A01 T02260158  RH  065%=      5-min Rain = 0
KVP1 110515Z 17009KT 23/16 A3009 RMK A01 T02260158  RH  065%=      5-min Rain = 0
KVP1 110516Z 17008KT 23/16 A3009 RMK A01 T02250158  RH  066%=      5-min Rain = 0
KVP1 110517Z 17008KT 22/16 A3009 RMK A01 T02240158  RH  066%=      5-min Rain = 0
KVP1 110518Z 17009KT 22/16 A3009 RMK A01 T02240157  RH  066%=      5-min Rain = 0
KVP1 110519Z 17008KT 22/16 A3009 RMK A01 T02240158  RH  066%=      5-min Rain = 0
KVP1 110520Z 17008KT 22/16 A3009 RMK A01 T02230158  RH  066%=      5-min Rain = 0
KVP1 110521Z 17009KT 22/16 A3009 RMK A01 T02230158  RH  066%=      5-min Rain = 0
KVP1 110522Z 17009KT 22/16 A3009 RMK A01 T02230158  RH  066%=      5-min Rain = 0
KVP1 110523Z 17009KT 22/16 A3009 RMK A01 T02230158  RH  066%=      5-min Rain = 0
KVP1 110524Z 17008KT 22/16 A3009 RMK A01 T02230158  RH  066%=      5-min Rain = 0
KVP1 110525Z 17008KT 22/16 A3009 RMK A01 T02230158  RH  066%=      5-min Rain = 0
KVP1 110526Z 17008KT 22/16 A3009 RMK A01 T02230158  RH  066%=      5-min Rain = 0
KVP1 110527Z 17009KT 22/16 A3009 RMK A01 T02230158  RH  066%=      5-min Rain = 0
KVP1 110528Z 17008KT 22/16 A3009 RMK A01 T02230158  RH  067%=      5-min Rain = 0
KVP1 110529Z 17008KT 22/16 A3009 RMK A01 T02230158  RH  067%=      5-min Rain = 0
KVP1 110530Z 17009KT 22/16 A3009 RMK A01 T02220158  RH  067%=      5-min Rain = 0
KVP1 110531Z 17008KT 22/16 A3009 RMK A01 T02220158  RH  067%=      5-min Rain = 0
KVP1 110532Z 17009KT 22/16 A3009 RMK A01 T02210158  RH  067%=      5-min Rain = 0
KVP1 110533Z 18009KT 22/16 A3009 RMK A01 T02210158  RH  067%=      5-min Rain = 0
KVP1 110534Z 18009KT 22/16 A3009 RMK A01 T02210158  RH  067%=      5-min Rain = 0
KVP1 110535Z 17008KT 22/16 A3009 RMK A01 T02210158  RH  067%=      5-min Rain = 0
KVP1 110536Z 18009KT 22/16 A3009 RMK A01 T02210158  RH  067%=      5-min Rain = 0
KVP1 110537Z 18008KT 22/16 A3009 RMK A01 T02210159  RH  068%=      5-min Rain = 0
KVP1 110538Z 18009KT 22/16 A3009 RMK A01 T02210159  RH  068%=      5-min Rain = 0
KVP1 110539Z 18009KT 22/16 A3009 RMK A01 T02210159  RH  068%=      5-min Rain = 0
KVP1 110540Z 17009KT 22/16 A3009 RMK A01 T02210159  RH  068%=      5-min Rain = 0
KVP1 110541Z 17009KT 22/16 A3009 RMK A01 T02210158  RH  068%=      5-min Rain = 0
KVP1 110542Z 17009KT 22/16 A3009 RMK A01 T02200159  RH  068%=      5-min Rain = 0
KVP1 110543Z 17009KT 22/16 A3009 RMK A01 T02200159  RH  068%=      5-min Rain = 0
KVP1 110544Z 17009KT 22/16 A3009 RMK A01 T02200159  RH  068%=      5-min Rain = 0
KVP1 110545Z 17010KT 22/16 A3009 RMK A01 T02200159  RH  068%=      5-min Rain = 0
KVP1 110546Z 17009KT 22/16 A3009 RMK A01 T02200159  RH  068%=      5-min Rain = 0
KVP1 110547Z 17009KT 22/16 A3009 RMK A01 T02200159  RH  068%=      5-min Rain = 0
KVP1 110548Z 17009KT 22/16 A3009 RMK A01 T02200159  RH  068%=      5-min Rain = 0
KVP1 110549Z 18010KT 22/16 A3009 RMK A01 T02200159  RH  068%=      5-min Rain = 0
KVP1 110550Z 18009KT 22/16 A3009 RMK A01 T02200159  RH  068%=      5-min Rain = 0
KVP1 110551Z 17009KT 22/16 A3009 RMK A01 T02200159  RH  068%=      5-min Rain = 0
KVP1 110552Z 18009KT 22/16 A3009 RMK A01 T02200159  RH  068%=      5-min Rain = 0
KVP1 110553Z 17009KT 22/16 A3009 RMK A01 T02200160  RH  068%=      5-min Rain = 0
KVP1 110554Z 17009KT 22/16 A3009 RMK A01 T02200160  RH  069%=      5-min Rain = 0
KVP1 110555Z 17009KT 22/16 A3009 RMK A01 T02200160  RH  069%=      5-min Rain = 0
KVP1 110556Z 18009KT 22/16 A3009 RMK A01 T02190160  RH  069%=      5-min Rain = 0
KVP1 110557Z 18009KT 22/16 A3009 RMK A01 T02190160  RH  069%=      5-min Rain = 0
KVP1 110558Z 17009KT 22/16 A3009 RMK A01 T02190160  RH  069%=      5-min Rain = 0
KVP1 110559Z 17009KT 22/16 A3009 RMK A01 T02190160  RH  069%=      5-min Rain = 0
KVP1 110600Z 17009KT 22/16 A3009 RMK A01 T02190160  RH  069%=      5-min Rain = 0
KVP1 110601Z 17009KT 22/16 A3009 RMK A01 T02190160  RH  069%=      5-min Rain = 0
KVP1 110602Z 17009KT 22/16 A3009 RMK A01 T02190160  RH  069%=      5-min Rain = 0
KVP1 110603Z 18008KT 22/16 A3009 RMK A01 T02190160  RH  069%=      5-min Rain = 0
KVP1 110604Z 18009KT 22/16 A3009 RMK A01 T02180160  RH  069%=      5-min Rain = 0
KVP1 110605Z 18008KT 22/16 A3009 RMK A01 T02180160  RH  070%=      5-min Rain = 0
KVP1 110606Z 18009KT 22/16 A3009 RMK A01 T02180160  RH  070%=      5-min Rain = 0
KVP1 110607Z 17009KT 22/16 A3009 RMK A01 T02170160  RH  070%=      5-min Rain = 0
KVP1 110608Z 17009KT 22/16 A3009 RMK A01 T02170160  RH  070%=      5-min Rain = 0
KVP1 110609Z 18008KT 22/16 A3009 RMK A01 T02160160  RH  070%=      5-min Rain = 0
KVP1 110610Z 17007KT 22/16 A3009 RMK A01 T02160160  RH  070%=      5-min Rain = 0
KVP1 110611Z 18008KT 22/16 A3009 RMK A01 T02160160  RH  070%=      5-min Rain = 0
KVP1 110612Z 18008KT 22/16 A3009 RMK A01 T02160160  RH  071%=      5-min Rain = 0
KVP1 110613Z 18008KT 22/16 A3009 RMK A01 T02150160  RH  071%=      5-min Rain = 0
KVP1 110614Z 18008KT 22/16 A3009 RMK A01 T02150160  RH  071%=      5-min Rain = 0
KVP1 110615Z 18008KT 21/16 A3009 RMK A01 T02140160  RH  071%=      5-min Rain = 0
KVP1 110616Z 18008KT 21/16 A3009 RMK A01 T02140160  RH  071%=      5-min Rain = 0
KVP1 110617Z 18008KT 21/16 A3009 RMK A01 T02140160  RH  071%=      5-min Rain = 0
KVP1 110618Z 18009KT 21/16 A3009 RMK A01 T02140160  RH  071%=      5-min Rain = 0
KVP1 110619Z 18009KT 21/16 A3009 RMK A01 T02130160  RH  072%=      5-min Rain = 0
KVP1 110620Z 17008KT 21/16 A3009 RMK A01 T02130160  RH  072%=      5-min Rain = 0
KVP1 110621Z 17008KT 21/16 A3009 RMK A01 T02130160  RH  072%=      5-min Rain = 0
KVP1 110622Z 17008KT 21/16 A3009 RMK A01 T02120161  RH  072%=      5-min Rain = 0
KVP1 110623Z 17008KT 21/16 A3009 RMK A01 T02120160  RH  072%=      5-min Rain = 0
KVP1 110624Z 17009KT 21/16 A3009 RMK A01 T02120161  RH  073%=      5-min Rain = 0
KVP1 110625Z 17008KT 21/16 A301 RMK A01 T02110161  RH  073%=      5-min Rain = 0
KVP1 110626Z 17008KT 21/16 A301 RMK A01 T02110161  RH  073%=      5-min Rain = 0
KVP1 110627Z 17008KT 21/16 A301 RMK A01 T02100161  RH  073%=      5-min Rain = 0
KVP1 110628Z 17008KT 21/16 A301 RMK A01 T02100161  RH  073%=      5-min Rain = 0
KVP1 110629Z 17008KT 21/16 A301 RMK A01 T02100161  RH  073%=      5-min Rain = 0
KVP1 110630Z 17007KT 21/16 A301 RMK A01 T02100161  RH  073%=      5-min Rain = 0
KVP1 110631Z 17007KT 21/16 A301 RMK A01 T02100161  RH  073%=      5-min Rain = 0
KVP1 110632Z 17007KT 21/16 A301 RMK A01 T02090160  RH  074%=      5-min Rain = 0
KVP1 110633Z 17007KT 21/16 A301 RMK A01 T02090160  RH  074%=      5-min Rain = 0
KVP1 110634Z 17007KT 21/16 A301 RMK A01 T02080160  RH  074%=      5-min Rain = 0
KVP1 110635Z 17007KT 21/16 A301 RMK A01 T02080160  RH  074%=      5-min Rain = 0
KVP1 110636Z 17007KT 21/16 A301 RMK A01 T02080160  RH  074%=      5-min Rain = 0
KVP1 110637Z 17007KT 21/16 A301 RMK A01 T02070160  RH  074%=      5-min Rain = 0
KVP1 110638Z 17007KT 21/16 A301 RMK A01 T02070160  RH  075%=      5-min Rain = 0
KVP1 110639Z 17007KT 21/16 A301 RMK A01 T02070160  RH  075%=      5-min Rain = 0
KVP1 110640Z 16008KT 21/16 A301 RMK A01 T02060160  RH  075%=      5-min Rain = 0
KVP1 110641Z 17007KT 21/16 A301 RMK A01 T02060161  RH  075%=      5-min Rain = 0
KVP1 110642Z 17008KT 21/16 A301 RMK A01 T02060161  RH  075%=      5-min Rain = 0
KVP1 110643Z 17007KT 21/16 A301 RMK A01 T02050160  RH  075%=      5-min Rain = 0
KVP1 110644Z 17007KT 21/16 A301 RMK A01 T02050160  RH  075%=      5-min Rain = 0
KVP1 110645Z 17007KT 21/16 A301 RMK A01 T02050160  RH  075%=      5-min Rain = 0
KVP1 110646Z 17007KT 21/16 A301 RMK A01 T02050160  RH  076%=      5-min Rain = 0
KVP1 110647Z 17007KT 21/16 A301 RMK A01 T02050161  RH  076%=      5-min Rain = 0
KVP1 110648Z 17006KT 21/16 A301 RMK A01 T02050161  RH  076%=      5-min Rain = 0
KVP1 110649Z 17007KT 21/16 A301 RMK A01 T02050160  RH  076%=      5-min Rain = 0
KVP1 110650Z 17007KT 21/16 A301 RMK A01 T02050161  RH  076%=      5-min Rain = 0
KVP1 110651Z 17007KT 20/16 A301 RMK A01 T02040160  RH  076%=      5-min Rain = 0
KVP1 110652Z 17007KT 20/16 A301 RMK A01 T02040160  RH  076%=      5-min Rain = 0
KVP1 110653Z 17007KT 20/16 A301 RMK A01 T02040161  RH  076%=      5-min Rain = 0
KVP1 110654Z 17007KT 20/16 A301 RMK A01 T02040161  RH  076%=      5-min Rain = 0
KVP1 110655Z 17007KT 20/16 A301 RMK A01 T02030161  RH  076%=      5-min Rain = 0
KVP1 110656Z 17007KT 20/16 A301 RMK A01 T02030160  RH  076%=      5-min Rain = 0
KVP1 110657Z 17007KT 20/16 A301 RMK A01 T02030160  RH  077%=      5-min Rain = 0
KVP1 110658Z 17007KT 20/16 A301 RMK A01 T02020160  RH  077%=      5-min Rain = 0
KVP1 110659Z 17007KT 20/16 A301 RMK A01 T02020160  RH  077%=      5-min Rain = 0
KVP1 110700Z 17007KT 20/16 A301 RMK A01 T02020160  RH  077%=      5-min Rain = 0
KVP1 110701Z 17006KT 20/16 A301 RMK A01 T02020161  RH  077%=      5-min Rain = 0
KVP1 110702Z 17006KT 20/16 A301 RMK A01 T02020161  RH  077%=      5-min Rain = 0
KVP1 110703Z 17006KT 20/16 A301 RMK A01 T02010160  RH  077%=      5-min Rain = 0
KVP1 110704Z 16006KT 20/16 A301 RMK A01 T02010160  RH  077%=      5-min Rain = 0
KVP1 110705Z 17006KT 20/16 A301 RMK A01 T02000160  RH  078%=      5-min Rain = 0
KVP1 110706Z 17006KT 20/16 A301 RMK A01 T02000161  RH  078%=      5-min Rain = 0
KVP1 110707Z 17006KT 20/16 A301 RMK A01 T02000161  RH  078%=      5-min Rain = 0
KVP1 110708Z 17005KT 20/16 A301 RMK A01 T02000161  RH  078%=      5-min Rain = 0
KVP1 110709Z 17005KT 20/16 A301 RMK A01 T01990160  RH  078%=      5-min Rain = 0
KVP1 110710Z 17005KT 20/16 A301 RMK A01 T01990161  RH  078%=      5-min Rain = 0
KVP1 110711Z 17005KT 20/16 A301 RMK A01 T01990161  RH  079%=      5-min Rain = 0
KVP1 110712Z 18006KT 20/16 A301 RMK A01 T01980160  RH  079%=      5-min Rain = 0
KVP1 110713Z 18006KT 20/16 A301 RMK A01 T01980160  RH  079%=      5-min Rain = 0
KVP1 110714Z 18006KT 20/16 A301 RMK A01 T01980160  RH  079%=      5-min Rain = 0
KVP1 110715Z 18006KT 20/16 A301 RMK A01 T01970160  RH  079%=      5-min Rain = 0
KVP1 110716Z 18006KT 20/16 A301 RMK A01 T01970160  RH  079%=      5-min Rain = 0
KVP1 110717Z 18007KT 20/16 A301 RMK A01 T01960160  RH  079%=      5-min Rain = 0
KVP1 110718Z 18006KT 20/16 A301 RMK A01 T01960160  RH  079%=      5-min Rain = 0
KVP1 110719Z 18006KT 20/16 A301 RMK A01 T01960160  RH  080%=      5-min Rain = 0
KVP1 110720Z 18006KT 20/16 A301 RMK A01 T01960160  RH  080%=      5-min Rain = 0
KVP1 110721Z 18007KT 20/16 A301 RMK A01 T01960160  RH  080%=      5-min Rain = 0
KVP1 110722Z 18007KT 20/16 A301 RMK A01 T01970161  RH  080%=      5-min Rain = 0
KVP1 110723Z 18007KT 20/16 A301 RMK A01 T01970161  RH  079%=      5-min Rain = 0
KVP1 110724Z 18007KT 20/16 A301 RMK A01 T01970161  RH  079%=      5-min Rain = 0
KVP1 110725Z 18007KT 20/16 A301 RMK A01 T01970161  RH  080%=      5-min Rain = 0
KVP1 110726Z 18007KT 20/16 A301 RMK A01 T01970161  RH  080%=      5-min Rain = 0
KVP1 110727Z 18007KT 20/16 A3009 RMK A01 T01970161  RH  080%=      5-min Rain = 0
KVP1 110728Z 17008KT 20/16 A3009 RMK A01 T01970161  RH  080%=      5-min Rain = 0
KVP1 110729Z 17007KT 20/16 A3009 RMK A01 T01970161  RH  080%=      5-min Rain = 0
KVP1 110730Z 17008KT 20/16 A3009 RMK A01 T01970161  RH  080%=      5-min Rain = 0
KVP1 110731Z 17008KT 20/16 A3009 RMK A01 T01970161  RH  080%=      5-min Rain = 0
KVP1 110732Z 16007KT 20/16 A3009 RMK A01 T01970162  RH  080%=      5-min Rain = 0
KVP1 110733Z 16007KT 20/16 A3009 RMK A01 T01980162  RH  080%=      5-min Rain = 0
KVP1 110734Z 16007KT 20/16 A3009 RMK A01 T01980162  RH  080%=      5-min Rain = 0
KVP1 110735Z 16007KT 20/16 A3009 RMK A01 T01980162  RH  080%=      5-min Rain = 0
KVP1 110736Z 16007KT 20/16 A3009 RMK A01 T01980162  RH  080%=      5-min Rain = 0
KVP1 110737Z 16006KT 20/16 A3009 RMK A01 T01970162  RH  080%=      5-min Rain = 0
KVP1 110738Z 17006KT 20/16 A3009 RMK A01 T01970162  RH  081%=      5-min Rain = 0
KVP1 110739Z 17006KT 20/16 A3009 RMK A01 T01960162  RH  081%=      5-min Rain = 0
KVP1 110740Z 17006KT 20/16 A3009 RMK A01 T01960163  RH  081%=      5-min Rain = 0
KVP1 110741Z 17006KT 20/16 A3009 RMK A01 T01960162  RH  081%=      5-min Rain = 0
KVP1 110742Z 17006KT 20/16 A3009 RMK A01 T01950162  RH  081%=      5-min Rain = 0
KVP1 110743Z 17006KT 20/16 A3009 RMK A01 T01950162  RH  082%=      5-min Rain = 0
KVP1 110744Z 17005KT 19/16 A3009 RMK A01 T01940162  RH  082%=      5-min Rain = 0
KVP1 110745Z 17006KT 20/16 A3009 RMK A01 T01950163  RH  082%=      5-min Rain = 0
KVP1 110746Z 17006KT 19/16 A3009 RMK A01 T01940162  RH  082%=      5-min Rain = 0
KVP1 110747Z 17005KT 19/16 A3009 RMK A01 T01940162  RH  082%=      5-min Rain = 0
KVP1 110748Z 17005KT 19/16 A3009 RMK A01 T01940162  RH  082%=      5-min Rain = 0
KVP1 110749Z 17005KT 19/16 A3009 RMK A01 T01940162  RH  082%=      5-min Rain = 0
KVP1 110750Z 17005KT 19/16 A3009 RMK A01 T01930161  RH  082%=      5-min Rain = 0
KVP1 110751Z 17004KT 19/16 A3009 RMK A01 T01930161  RH  082%=      5-min Rain = 0
KVP1 110752Z 17004KT 19/16 A3009 RMK A01 T01930161  RH  082%=      5-min Rain = 0
KVP1 110753Z 18004KT 19/16 A301 RMK A01 T01930161  RH  082%=      5-min Rain = 0
KVP1 110754Z 18004KT 19/16 A301 RMK A01 T01930161  RH  082%=      5-min Rain = 0
KVP1 110755Z 18004KT 19/16 A301 RMK A01 T01920161  RH  082%=      5-min Rain = 0
KVP1 110756Z 18004KT 19/16 A301 RMK A01 T01920161  RH  082%=      5-min Rain = 0
KVP1 110757Z 18004KT 19/16 A301 RMK A01 T01920161  RH  082%=      5-min Rain = 0
KVP1 110758Z 18004KT 19/16 A301 RMK A01 T01920161  RH  082%=      5-min Rain = 0
KVP1 110759Z 18004KT 19/16 A301 RMK A01 T01910160  RH  082%=      5-min Rain = 0
KVP1 110800Z 18004KT 19/16 A301 RMK A01 T01910161  RH  082%=      5-min Rain = 0
KVP1 110801Z 18004KT 19/16 A301 RMK A01 T01910161  RH  082%=      5-min Rain = 0
KVP1 110802Z 18005KT 19/16 A301 RMK A01 T01910160  RH  082%=      5-min Rain = 0
KVP1 110803Z 18004KT 19/16 A301 RMK A01 T01910160  RH  082%=      5-min Rain = 0
KVP1 110804Z 18004KT 19/16 A301 RMK A01 T01900160  RH  083%=      5-min Rain = 0
KVP1 110805Z 18005KT 19/16 A301 RMK A01 T01900160  RH  083%=      5-min Rain = 0
KVP1 110806Z 18005KT 19/16 A301 RMK A01 T01900160  RH  083%=      5-min Rain = 0
KVP1 110807Z 17005KT 19/16 A301 RMK A01 T01900160  RH  083%=      5-min Rain = 0
KVP1 110808Z 17005KT 19/16 A301 RMK A01 T01900161  RH  083%=      5-min Rain = 0
KVP1 110809Z 17005KT 19/16 A3009 RMK A01 T01900160  RH  083%=      5-min Rain = 0
KVP1 110810Z 18005KT 19/16 A3009 RMK A01 T01900160  RH  083%=      5-min Rain = 0
KVP1 110811Z 18005KT 19/16 A3009 RMK A01 T01890160  RH  083%=      5-min Rain = 0
KVP1 110812Z 18006KT 19/16 A3009 RMK A01 T01880160  RH  084%=      5-min Rain = 0
KVP1 110813Z 18006KT 19/16 A3009 RMK A01 T01890160  RH  084%=      5-min Rain = 0
KVP1 110814Z 18007KT 19/16 A3009 RMK A01 T01880160  RH  084%=      5-min Rain = 0
KVP1 110815Z 18008KT 19/16 A3009 RMK A01 T01880161  RH  084%=      5-min Rain = 0
KVP1 110816Z 18008KT 19/16 A3009 RMK A01 T01890161  RH  084%=      5-min Rain = 0
KVP1 110817Z 18008KT 19/16 A3009 RMK A01 T01900162  RH  084%=      5-min Rain = 0
KVP1 110818Z 18008KT 19/16 A3009 RMK A01 T01910162  RH  083%=      5-min Rain = 0
KVP1 110819Z 18008KT 19/16 A3009 RMK A01 T01910162  RH  083%=      5-min Rain = 0
KVP1 110820Z 18008KT 19/16 A3009 RMK A01 T01920163  RH  083%=      5-min Rain = 0
KVP1 110821Z 18008KT 19/16 A3009 RMK A01 T01930163  RH  083%=      5-min Rain = 0
KVP1 110822Z 18008KT 19/16 A3009 RMK A01 T01940163  RH  082%=      5-min Rain = 0
KVP1 110823Z 18008KT 19/16 A3009 RMK A01 T01940163  RH  082%=      5-min Rain = 0
KVP1 110824Z 18008KT 20/16 A3009 RMK A01 T01950163  RH  082%=      5-min Rain = 0
KVP1 110825Z 18008KT 20/16 A3009 RMK A01 T01950163  RH  081%=      5-min Rain = 0
KVP1 110826Z 18007KT 20/16 A3009 RMK A01 T01950163  RH  081%=      5-min Rain = 0
KVP1 110827Z 19007KT 20/16 A3009 RMK A01 T01950163  RH  082%=      5-min Rain = 0
KVP1 110828Z 19008KT 20/16 A3009 RMK A01 T01950163  RH  082%=      5-min Rain = 0
KVP1 110829Z 19008KT 20/16 A3009 RMK A01 T01950164  RH  082%=      5-min Rain = 0
KVP1 110830Z 19008KT 20/16 A3009 RMK A01 T01950164  RH  082%=      5-min Rain = 0
KVP1 110831Z 19008KT 20/16 A3009 RMK A01 T01950163  RH  082%=      5-min Rain = 0
KVP1 110832Z 19007KT 20/16 A3009 RMK A01 T01960164  RH  082%=      5-min Rain = 0
KVP1 110833Z 19008KT 20/16 A3009 RMK A01 T01960164  RH  082%=      5-min Rain = 0
KVP1 110834Z 19008KT 20/16 A3009 RMK A01 T01960164  RH  082%=      5-min Rain = 0
KVP1 110835Z 19008KT 20/16 A3009 RMK A01 T01960164  RH  082%=      5-min Rain = 0
KVP1 110836Z 19008KT 20/16 A3009 RMK A01 T01960164  RH  082%=      5-min Rain = 0
KVP1 110837Z 20008KT 20/17 A3009 RMK A01 T01960165  RH  082%=      5-min Rain = 0
KVP1 110838Z 19008KT 20/17 A3009 RMK A01 T01960165  RH  082%=      5-min Rain = 0
KVP1 110839Z 20008KT 20/17 A3009 RMK A01 T01960165  RH  082%=      5-min Rain = 0
KVP1 110840Z 20008KT 20/17 A3009 RMK A01 T01960165  RH  082%=      5-min Rain = 0
KVP1 110841Z 19008KT 20/17 A3009 RMK A01 T01960165  RH  082%=      5-min Rain = 0
KVP1 110842Z 20008KT 20/17 A3009 RMK A01 T01960165  RH  082%=      5-min Rain = 0
KVP1 110843Z 19008KT 20/17 A3009 RMK A01 T01950165  RH  083%=      5-min Rain = 0
KVP1 110844Z 19008KT 20/17 A3009 RMK A01 T01950165  RH  083%=      5-min Rain = 0
KVP1 110845Z 20008KT 20/17 A3009 RMK A01 T01950165  RH  083%=      5-min Rain = 0
KVP1 110846Z 19008KT 20/17 A3009 RMK A01 T01950165  RH  083%=      5-min Rain = 0
KVP1 110847Z 19008KT 20/17 A3009 RMK A01 T01950165  RH  083%=      5-min Rain = 0
KVP1 110848Z 19008KT 19/17 A3009 RMK A01 T01940165  RH  083%=      5-min Rain = 0
KVP1 110849Z 19008KT 19/17 A3009 RMK A01 T01940165  RH  083%=      5-min Rain = 0
KVP1 110850Z 20008KT 19/17 A3009 RMK A01 T01940166  RH  084%=      5-min Rain = 0
KVP1 110851Z 20007KT 19/17 A3009 RMK A01 T01940166  RH  084%=      5-min Rain = 0
KVP1 110852Z 20007KT 19/17 A3009 RMK A01 T01940166  RH  084%=      5-min Rain = 0
KVP1 110853Z 20008KT 19/17 A3009 RMK A01 T01940166  RH  084%=      5-min Rain = 0
KVP1 110854Z 20008KT 19/17 A3009 RMK A01 T01930166  RH  084%=      5-min Rain = 0
KVP1 110855Z 20007KT 19/17 A3009 RMK A01 T01930166  RH  084%=      5-min Rain = 0
KVP1 110856Z 20007KT 19/17 A3009 RMK A01 T01930166  RH  085%=      5-min Rain = 0
KVP1 110857Z 20008KT 19/17 A3009 RMK A01 T01920166  RH  085%=      5-min Rain = 0
KVP1 110858Z 20007KT 19/17 A3009 RMK A01 T01920166  RH  085%=      5-min Rain = 0
KVP1 110859Z 20008KT 19/17 A3009 RMK A01 T01920167  RH  085%=      5-min Rain = 0
KVP1 110900Z 19007KT 19/17 A3009 RMK A01 T01920167  RH  085%=      5-min Rain = 0
KVP1 110901Z 20007KT 19/17 A3009 RMK A01 T01920167  RH  085%=      5-min Rain = 0
KVP1 110902Z 20007KT 19/17 A3009 RMK A01 T01920167  RH  086%=      5-min Rain = 0
KVP1 110903Z 20008KT 19/17 A3009 RMK A01 T01910167  RH  086%=      5-min Rain = 0
KVP1 110904Z 20007KT 19/17 A3009 RMK A01 T01910167  RH  086%=      5-min Rain = 0
KVP1 110905Z 20007KT 19/17 A3009 RMK A01 T01910167  RH  086%=      5-min Rain = 0
KVP1 110906Z 20007KT 19/17 A3009 RMK A01 T01910167  RH  086%=      5-min Rain = 0
KVP1 110907Z 19007KT 19/17 A3009 RMK A01 T01910167  RH  086%=      5-min Rain = 0
KVP1 110908Z 20008KT 19/17 A3009 RMK A01 T01910167  RH  086%=      5-min Rain = 0
KVP1 110909Z 20007KT 19/17 A3009 RMK A01 T01910167  RH  086%=      5-min Rain = 0
KVP1 110910Z 20008KT 19/17 A3009 RMK A01 T01910167  RH  086%=      5-min Rain = 0
KVP1 110911Z 19007KT 19/17 A3009 RMK A01 T01910167  RH  086%=      5-min Rain = 0
KVP1 110912Z 19008KT 19/17 A3009 RMK A01 T01910168  RH  086%=      5-min Rain = 0
KVP1 110913Z 19007KT 19/17 A3009 RMK A01 T01910168  RH  086%=      5-min Rain = 0
KVP1 110914Z 19008KT 19/17 A3009 RMK A01 T01910167  RH  086%=      5-min Rain = 0
KVP1 110915Z 19008KT 19/17 A3009 RMK A01 T01900168  RH  087%=      5-min Rain = 0
KVP1 110916Z 20008KT 19/17 A3009 RMK A01 T01900167  RH  087%=      5-min Rain = 0
KVP1 110917Z 20008KT 19/17 A3009 RMK A01 T01900167  RH  087%=      5-min Rain = 0
KVP1 110918Z 19008KT 19/17 A3009 RMK A01 T01900167  RH  087%=      5-min Rain = 0
KVP1 110919Z 20008KT 19/17 A3009 RMK A01 T01900167  RH  087%=      5-min Rain = 0
KVP1 110920Z 19008KT 19/17 A3009 RMK A01 T01900167  RH  087%=      5-min Rain = 0
KVP1 110921Z 20008KT 19/17 A3009 RMK A01 T01900168  RH  087%=      5-min Rain = 0
KVP1 110922Z 20008KT 19/17 A3009 RMK A01 T01890168  RH  087%=      5-min Rain = 0
KVP1 110923Z 20009KT 19/17 A3009 RMK A01 T01890168  RH  087%=      5-min Rain = 0
KVP1 110924Z 20008KT 19/17 A3009 RMK A01 T01890168  RH  087%=      5-min Rain = 0
KVP1 110925Z 20009KT 19/17 A3009 RMK A01 T01890168  RH  087%=      5-min Rain = 0
KVP1 110926Z 19009KT 19/17 A3009 RMK A01 T01890168  RH  087%=      5-min Rain = 0
KVP1 110927Z 19009KT 19/17 A3009 RMK A01 T01900168  RH  087%=      5-min Rain = 0
KVP1 110928Z 19009KT 19/17 A3009 RMK A01 T01900167  RH  087%=      5-min Rain = 0
KVP1 110929Z 19010KT 19/17 A3009 RMK A01 T01900167  RH  087%=      5-min Rain = 0
KVP1 110930Z 19009KT 19/17 A3009 RMK A01 T01900167  RH  087%=      5-min Rain = 0
KVP1 110931Z 19009KT 19/17 A3009 RMK A01 T01900168  RH  087%=      5-min Rain = 0
KVP1 110932Z 20008KT 19/17 A3009 RMK A01 T01900168  RH  087%=      5-min Rain = 0
KVP1 110933Z 20009KT 19/17 A3009 RMK A01 T01900168  RH  087%=      5-min Rain = 0
KVP1 110934Z 20009KT 19/17 A3009 RMK A01 T01910168  RH  087%=      5-min Rain = 0
KVP1 110935Z 20009KT 19/17 A3009 RMK A01 T01910168  RH  087%=      5-min Rain = 0
KVP1 110936Z 20009KT 19/17 A3009 RMK A01 T01920168  RH  086%=      5-min Rain = 0
KVP1 110937Z 20008KT 19/17 A3009 RMK A01 T01920168  RH  086%=      5-min Rain = 0
KVP1 110938Z 20008KT 19/17 A3009 RMK A01 T01910168  RH  086%=      5-min Rain = 0
KVP1 110939Z 20008KT 19/17 A3009 RMK A01 T01910168  RH  087%=      5-min Rain = 0
KVP1 110940Z 20008KT 19/17 A3009 RMK A01 T01900168  RH  087%=      5-min Rain = 0
KVP1 110941Z 20008KT 19/17 A3009 RMK A01 T01900168  RH  087%=      5-min Rain = 0
KVP1 110942Z 21009KT 19/17 A3009 RMK A01 T01890168  RH  087%=      5-min Rain = 0
KVP1 110943Z 21008KT 19/17 A3008 RMK A01 T01900168  RH  087%=      5-min Rain = 0
KVP1 110944Z 21009KT 19/17 A3008 RMK A01 T01890168  RH  087%=      5-min Rain = 0
KVP1 110945Z 21009KT 19/17 A3008 RMK A01 T01890168  RH  088%=      5-min Rain = 0
KVP1 110946Z 21009KT 19/17 A3008 RMK A01 T01890168  RH  088%=      5-min Rain = 0
KVP1 110947Z 21009KT 19/17 A3008 RMK A01 T01900168  RH  087%=      5-min Rain = 0
KVP1 110948Z 21009KT 19/17 A3008 RMK A01 T01900168  RH  087%=      5-min Rain = 0
KVP1 110949Z 20009KT 19/17 A3008 RMK A01 T01900169  RH  087%=      5-min Rain = 0
KVP1 110950Z 21009KT 19/17 A3008 RMK A01 T01900168  RH  087%=      5-min Rain = 0
KVP1 110951Z 20009KT 19/17 A3008 RMK A01 T01900169  RH  087%=      5-min Rain = 0
KVP1 110952Z 20010KT 19/17 A3008 RMK A01 T01910169  RH  087%=      5-min Rain = 0
KVP1 110953Z 20009KT 19/17 A3008 RMK A01 T01910169  RH  087%=      5-min Rain = 0
KVP1 110954Z 20008KT 19/17 A3008 RMK A01 T01910169  RH  087%=      5-min Rain = 0
KVP1 110955Z 20009KT 19/17 A3008 RMK A01 T01910169  RH  087%=      5-min Rain = 0
KVP1 110956Z 20009KT 19/17 A3008 RMK A01 T01920169  RH  087%=      5-min Rain = 0
KVP1 110957Z 20009KT 19/17 A3008 RMK A01 T01920169  RH  087%=      5-min Rain = 0
KVP1 110958Z 20009KT 19/17 A3009 RMK A01 T01920169  RH  087%=      5-min Rain = 0
KVP1 110959Z 20009KT 19/17 A3009 RMK A01 T01920170  RH  087%=      5-min Rain = 0
KVP1 111000Z 20009KT 19/17 A3009 RMK A01 T01920169  RH  087%=      5-min Rain = 0
KVP1 111001Z 19008KT 19/17 A3009 RMK A01 T01920169  RH  087%=      5-min Rain = 0
KVP1 111002Z 19008KT 19/17 A3009 RMK A01 T01920169  RH  087%=      5-min Rain = 0
KVP1 111003Z 19008KT 19/17 A3009 RMK A01 T01920169  RH  087%=      5-min Rain = 0
KVP1 111004Z 19008KT 19/17 A3009 RMK A01 T01920169  RH  087%=      5-min Rain = 0
KVP1 111005Z 19008KT 19/17 A3009 RMK A01 T01920169  RH  087%=      5-min Rain = 0
KVP1 111006Z 19008KT 19/17 A3009 RMK A01 T01920169  RH  087%=      5-min Rain = 0
KVP1 111007Z 19008KT 19/17 A3009 RMK A01 T01910169  RH  087%=      5-min Rain = 0
KVP1 111008Z 19008KT 19/17 A3009 RMK A01 T01910169  RH  087%=      5-min Rain = 0
KVP1 111009Z 19007KT 19/17 A3009 RMK A01 T01910169  RH  087%=      5-min Rain = 0
KVP1 111010Z 19007KT 19/17 A3009 RMK A01 T01910169  RH  087%=      5-min Rain = 0
KVP1 111011Z 19008KT 19/17 A3009 RMK A01 T01900169  RH  087%=      5-min Rain = 0
KVP1 111012Z 19008KT 19/17 A3009 RMK A01 T01900169  RH  088%=      5-min Rain = 0
KVP1 111013Z 19008KT 19/17 A3009 RMK A01 T01900169  RH  088%=      5-min Rain = 0
KVP1 111014Z 19008KT 19/17 A3009 RMK A01 T01890169  RH  088%=      5-min Rain = 0
KVP1 111015Z 19007KT 19/17 A3009 RMK A01 T01890168  RH  088%=      5-min Rain = 0
KVP1 111016Z 19007KT 19/17 A3009 RMK A01 T01890168  RH  088%=      5-min Rain = 0
KVP1 111017Z 19008KT 19/17 A3009 RMK A01 T01890168  RH  088%=      5-min Rain = 0
KVP1 111018Z 19008KT 19/17 A3009 RMK A01 T01890169  RH  088%=      5-min Rain = 0
KVP1 111019Z 19008KT 19/17 A3009 RMK A01 T01890169  RH  088%=      5-min Rain = 0
KVP1 111020Z 19008KT 19/17 A3009 RMK A01 T01890169  RH  088%=      5-min Rain = 0
KVP1 111021Z 19008KT 19/17 A3009 RMK A01 T01890169  RH  088%=      5-min Rain = 0
KVP1 111022Z 19008KT 19/17 A3009 RMK A01 T01890169  RH  088%=      5-min Rain = 0
KVP1 111023Z 19008KT 19/17 A3009 RMK A01 T01890169  RH  088%=      5-min Rain = 0
KVP1 111024Z 19009KT 19/17 A3009 RMK A01 T01890169  RH  088%=      5-min Rain = 0
KVP1 111025Z 19008KT 19/17 A3009 RMK A01 T01890169  RH  088%=      5-min Rain = 0
KVP1 111026Z 20008KT 19/17 A3009 RMK A01 T01890169  RH  088%=      5-min Rain = 0
KVP1 111027Z 19009KT 19/17 A3009 RMK A01 T01890169  RH  088%=      5-min Rain = 0
KVP1 111028Z 19008KT 19/17 A3009 RMK A01 T01890169  RH  088%=      5-min Rain = 0
KVP1 111029Z 19008KT 19/17 A3009 RMK A01 T01890169  RH  088%=      5-min Rain = 0
KVP1 111030Z 19008KT 19/17 A3008 RMK A01 T01890169  RH  088%=      5-min Rain = 0
KVP1 111031Z 19008KT 19/17 A3009 RMK A01 T01890169  RH  088%=      5-min Rain = 0
KVP1 111032Z 19008KT 19/17 A3009 RMK A01 T01880169  RH  089%=      5-min Rain = 0
KVP1 111033Z 19008KT 19/17 A3009 RMK A01 T01890169  RH  089%=      5-min Rain = 0
KVP1 111034Z 19008KT 19/17 A3009 RMK A01 T01880169  RH  089%=      5-min Rain = 0
KVP1 111035Z 19008KT 19/17 A3009 RMK A01 T01880169  RH  089%=      5-min Rain = 0
KVP1 111036Z 19008KT 19/17 A3009 RMK A01 T01880169  RH  089%=      5-min Rain = 0
KVP1 111037Z 19008KT 19/17 A3009 RMK A01 T01880169  RH  089%=      5-min Rain = 0
KVP1 111038Z 18008KT 19/17 A3009 RMK A01 T01870168  RH  089%=      5-min Rain = 0
KVP1 111039Z 19008KT 19/17 A3009 RMK A01 T01870168  RH  089%=      5-min Rain = 0
KVP1 111040Z 19008KT 19/17 A3009 RMK A01 T01860168  RH  089%=      5-min Rain = 0
KVP1 111041Z 19008KT 19/17 A3009 RMK A01 T01860169  RH  089%=      5-min Rain = 0
KVP1 111042Z 18008KT 19/17 A3009 RMK A01 T01860169  RH  090%=      5-min Rain = 0
KVP1 111043Z 18008KT 19/17 A3009 RMK A01 T01860169  RH  089%=      5-min Rain = 0
KVP1 111044Z 18007KT 19/17 A3009 RMK A01 T01860169  RH  089%=      5-min Rain = 0
KVP1 111045Z 18007KT 19/17 A3009 RMK A01 T01860169  RH  089%=      5-min Rain = 0
KVP1 111046Z 18008KT 19/17 A3009 RMK A01 T01860168  RH  089%=      5-min Rain = 0
KVP1 111047Z 18007KT 19/17 A3009 RMK A01 T01860168  RH  089%=      5-min Rain = 0
KVP1 111048Z 18007KT 19/17 A3009 RMK A01 T01860168  RH  089%=      5-min Rain = 0
KVP1 111049Z 18006KT 19/17 A3009 RMK A01 T01850168  RH  089%=      5-min Rain = 0
KVP1 111050Z 17007KT 19/17 A3009 RMK A01 T01850167  RH  089%=      5-min Rain = 0
KVP1 111051Z 17007KT 19/17 A3009 RMK A01 T01850167  RH  089%=      5-min Rain = 0
KVP1 111052Z 17007KT 19/17 A3009 RMK A01 T01850167  RH  090%=      5-min Rain = 0
KVP1 111053Z 17007KT 18/17 A3009 RMK A01 T01840167  RH  090%=      5-min Rain = 0
KVP1 111054Z 17007KT 18/17 A3009 RMK A01 T01840168  RH  090%=      5-min Rain = 0
KVP1 111055Z 17007KT 18/17 A3009 RMK A01 T01840167  RH  090%=      5-min Rain = 0
KVP1 111056Z 18008KT 18/17 A3009 RMK A01 T01840168  RH  090%=      5-min Rain = 0
KVP1 111057Z 18008KT 18/17 A3009 RMK A01 T01840168  RH  090%=      5-min Rain = 0
KVP1 111058Z 18007KT 18/17 A3009 RMK A01 T01840168  RH  090%=      5-min Rain = 0
KVP1 111059Z 18008KT 18/17 A3009 RMK A01 T01840168  RH  090%=      5-min Rain = 0
KVP1 111100Z 18009KT 18/17 A3009 RMK A01 T01840168  RH  090%=      5-min Rain = 0
KVP1 111101Z 18009KT 19/17 A3009 RMK A01 T01850169  RH  090%=      5-min Rain = 0
KVP1 111102Z 18008KT 19/17 A3009 RMK A01 T01850169  RH  090%=      5-min Rain = 0
KVP1 111103Z 18009KT 19/17 A3009 RMK A01 T01860169  RH  090%=      5-min Rain = 0
KVP1 111104Z 18008KT 19/17 A3009 RMK A01 T01860169  RH  090%=      5-min Rain = 0
KVP1 111105Z 18009KT 19/17 A3009 RMK A01 T01860169  RH  089%=      5-min Rain = 0
KVP1 111106Z 18009KT 19/17 A3009 RMK A01 T01860169  RH  090%=      5-min Rain = 0
KVP1 111107Z 18009KT 19/17 A3009 RMK A01 T01860169  RH  090%=      5-min Rain = 0
KVP1 111108Z 18010KT 19/17 A3009 RMK A01 T01860169  RH  090%=      5-min Rain = 0
KVP1 111109Z 18009KT 19/17 A3009 RMK A01 T01860169  RH  089%=      5-min Rain = 0
KVP1 111110Z 18009KT 19/17 A3009 RMK A01 T01870169  RH  089%=      5-min Rain = 0
KVP1 111111Z 18009KT 19/17 A3009 RMK A01 T01870169  RH  089%=      5-min Rain = 0
KVP1 111112Z 18008KT 19/17 A3009 RMK A01 T01870169  RH  089%=      5-min Rain = 0
KVP1 111113Z 18008KT 19/17 A3009 RMK A01 T01870169  RH  089%=      5-min Rain = 0
KVP1 111114Z 19008KT 19/17 A3009 RMK A01 T01870169  RH  089%=      5-min Rain = 0
KVP1 111115Z 19008KT 19/17 A3009 RMK A01 T01870169  RH  089%=      5-min Rain = 0
KVP1 111116Z 18008KT 19/17 A3009 RMK A01 T01870169  RH  089%=      5-min Rain = 0
KVP1 111117Z 18008KT 19/17 A3009 RMK A01 T01870169  RH  089%=      5-min Rain = 0
KVP1 111118Z 18007KT 19/17 A3009 RMK A01 T01870169  RH  089%=      5-min Rain = 0
KVP1 111119Z 18008KT 19/17 A3009 RMK A01 T01870169  RH  089%=      5-min Rain = 0
KVP1 111120Z 18008KT 19/17 A3009 RMK A01 T01870169  RH  089%=      5-min Rain = 0
KVP1 111121Z 18008KT 19/17 A3009 RMK A01 T01870169  RH  089%=      5-min Rain = 0
KVP1 111122Z 18008KT 19/17 A3009 RMK A01 T01870169  RH  090%=      5-min Rain = 0
KVP1 111123Z 18008KT 19/17 A3009 RMK A01 T01870169  RH  090%=      5-min Rain = 0
KVP1 111124Z 18008KT 19/17 A3009 RMK A01 T01870169  RH  090%=      5-min Rain = 0
KVP1 111125Z 18008KT 19/17 A3009 RMK A01 T01870169  RH  090%=      5-min Rain = 0
KVP1 111126Z 18008KT 19/17 A3009 RMK A01 T01860169  RH  090%=      5-min Rain = 0
KVP1 111127Z 18008KT 19/17 A3009 RMK A01 T01870169  RH  090%=      5-min Rain = 0
KVP1 111128Z 18007KT 19/17 A3008 RMK A01 T01870169  RH  090%=      5-min Rain = 0
KVP1 111129Z 19008KT 19/17 A3008 RMK A01 T01860169  RH  090%=      5-min Rain = 0
KVP1 111130Z 19008KT 19/17 A3008 RMK A01 T01860169  RH  090%=      5-min Rain = 0
KVP1 111131Z 19008KT 19/17 A3008 RMK A01 T01860169  RH  090%=      5-min Rain = 0
KVP1 111132Z 19009KT 19/17 A3008 RMK A01 T01860169  RH  090%=      5-min Rain = 0
KVP1 111133Z 19008KT 19/17 A3008 RMK A01 T01870170  RH  090%=      5-min Rain = 0
KVP1 111134Z 18008KT 19/17 A3008 RMK A01 T01870169  RH  090%=      5-min Rain = 0
KVP1 111135Z 18008KT 19/17 A3008 RMK A01 T01870169  RH  090%=      5-min Rain = 0
KVP1 111136Z 18008KT 19/17 A3008 RMK A01 T01870169  RH  090%=      5-min Rain = 0
KVP1 111137Z 18008KT 19/17 A3008 RMK A01 T01870169  RH  090%=      5-min Rain = 0
KVP1 111138Z 18007KT 19/17 A3008 RMK A01 T01860169  RH  090%=      5-min Rain = 0
KVP1 111139Z 17008KT 19/17 A3008 RMK A01 T01860169  RH  090%=      5-min Rain = 0
KVP1 111140Z 18008KT 19/17 A3009 RMK A01 T01850169  RH  090%=      5-min Rain = 0
KVP1 111141Z 18008KT 19/17 A3009 RMK A01 T01850169  RH  090%=      5-min Rain = 0
KVP1 111142Z 18008KT 19/17 A3009 RMK A01 T01850169  RH  090%=      5-min Rain = 0
KVP1 111143Z 18008KT 19/17 A3009 RMK A01 T01850169  RH  090%=      5-min Rain = 0
KVP1 111144Z 18008KT 19/17 A3009 RMK A01 T01850169  RH  090%=      5-min Rain = 0
KVP1 111145Z 18008KT 19/17 A3009 RMK A01 T01850169  RH  090%=      5-min Rain = 0
KVP1 111146Z 18008KT 18/17 A3009 RMK A01 T01840168  RH  090%=      5-min Rain = 0
KVP1 111147Z 19008KT 18/17 A3009 RMK A01 T01840168  RH  090%=      5-min Rain = 0
KVP1 111148Z 19008KT 18/17 A3009 RMK A01 T01840169  RH  090%=      5-min Rain = 0
KVP1 111149Z 19008KT 19/17 A3009 RMK A01 T01850169  RH  090%=      5-min Rain = 0
KVP1 111150Z 19009KT 19/17 A3009 RMK A01 T01850169  RH  090%=      5-min Rain = 0
KVP1 111151Z 19009KT 19/17 A3009 RMK A01 T01850169  RH  091%=      5-min Rain = 0
KVP1 111152Z 19009KT 19/17 A3009 RMK A01 T01860170  RH  090%=      5-min Rain = 0
KVP1 111153Z 19008KT 19/17 A3009 RMK A01 T01860170  RH  090%=      5-min Rain = 0
KVP1 111154Z 19009KT 19/17 A3009 RMK A01 T01860170  RH  090%=      5-min Rain = 0
KVP1 111155Z 19009KT 19/17 A3009 RMK A01 T01860170  RH  090%=      5-min Rain = 0
KVP1 111156Z 19009KT 19/17 A3009 RMK A01 T01860170  RH  090%=      5-min Rain = 0
KVP1 111157Z 19008KT 19/17 A3009 RMK A01 T01860170  RH  090%=      5-min Rain = 0
KVP1 111158Z 19009KT 19/17 A3009 RMK A01 T01860170  RH  090%=      5-min Rain = 0
KVP1 111159Z 19009KT 19/17 A3009 RMK A01 T01860170  RH  090%=      5-min Rain = 0
KVP1 111200Z 19009KT 19/17 A3009 RMK A01 T01860170  RH  090%=      5-min Rain = 0
KVP1 111201Z 19008KT 19/17 A3009 RMK A01 T01860170  RH  090%=      5-min Rain = 0
KVP1 111202Z 19009KT 19/17 A3009 RMK A01 T01850170  RH  091%=      5-min Rain = 0
KVP1 111203Z 19009KT 19/17 A3009 RMK A01 T01850170  RH  091%=      5-min Rain = 0
KVP1 111204Z 19008KT 19/17 A3009 RMK A01 T01850170  RH  091%=      5-min Rain = 0
KVP1 111205Z 19008KT 19/17 A3009 RMK A01 T01850170  RH  091%=      5-min Rain = 0
KVP1 111206Z 19008KT 19/17 A3009 RMK A01 T01850170  RH  091%=      5-min Rain = 0
KVP1 111207Z 19008KT 19/17 A3009 RMK A01 T01850170  RH  091%=      5-min Rain = 0
KVP1 111208Z 19009KT 19/17 A3009 RMK A01 T01850170  RH  091%=      5-min Rain = 0
KVP1 111209Z 19009KT 19/17 A3009 RMK A01 T01850170  RH  091%=      5-min Rain = 0
KVP1 111210Z 18009KT 19/17 A3009 RMK A01 T01850170  RH  091%=      5-min Rain = 0
KVP1 111211Z 18009KT 19/17 A3009 RMK A01 T01850170  RH  091%=      5-min Rain = 0
KVP1 111212Z 19009KT 18/17 A3009 RMK A01 T01840170  RH  091%=      5-min Rain = 0
KVP1 111213Z 19009KT 18/17 A3009 RMK A01 T01840170  RH  091%=      5-min Rain = 0
KVP1 111214Z 19008KT 18/17 A3009 RMK A01 T01840170  RH  091%=      5-min Rain = 0
KVP1 111215Z 19008KT 18/17 A3009 RMK A01 T01840170  RH  092%=      5-min Rain = 0
KVP1 111216Z 19009KT 18/17 A3009 RMK A01 T01840170  RH  092%=      5-min Rain = 0
KVP1 111217Z 19009KT 19/17 A3009 RMK A01 T01850171  RH  092%=      5-min Rain = 0
KVP1 111218Z 19008KT 18/17 A3009 RMK A01 T01840170  RH  092%=      5-min Rain = 0
KVP1 111219Z 19008KT 18/17 A3009 RMK A01 T01840170  RH  092%=      5-min Rain = 0
KVP1 111220Z 19008KT 18/17 A3009 RMK A01 T01840170  RH  092%=      5-min Rain = 0
KVP1 111221Z 19009KT 18/17 A3009 RMK A01 T01840171  RH  092%=      5-min Rain = 0
KVP1 111222Z 19009KT 18/17 A3009 RMK A01 T01840171  RH  092%=      5-min Rain = 0
KVP1 111223Z 18009KT 18/17 A3009 RMK A01 T01840171  RH  092%=      5-min Rain = 0
KVP1 111224Z 19010KT 18/17 A3009 RMK A01 T01840171  RH  092%=      5-min Rain = 0
KVP1 111225Z 19009KT 19/17 A3009 RMK A01 T01850171  RH  092%=      5-min Rain = 0
KVP1 111226Z 19009KT 19/17 A3009 RMK A01 T01850171  RH  092%=      5-min Rain = 0
KVP1 111227Z 19010KT 19/17 A3009 RMK A01 T01850171  RH  092%=      5-min Rain = 0
KVP1 111228Z 19010KT 19/17 A3009 RMK A01 T01860172  RH  092%=      5-min Rain = 0
KVP1 111229Z 19011KT 19/17 A3009 RMK A01 T01860172  RH  092%=      5-min Rain = 0
KVP1 111230Z 19010KT 19/17 A3009 RMK A01 T01860172  RH  091%=      5-min Rain = 0
KVP1 111231Z 20010KT 19/17 A3009 RMK A01 T01860172  RH  092%=      5-min Rain = 0
KVP1 111232Z 20011KT 19/17 A3009 RMK A01 T01870173  RH  092%=      5-min Rain = 0
KVP1 111233Z 20011KT 19/17 A3009 RMK A01 T01870173  RH  091%=      5-min Rain = 0
KVP1 111234Z 20011KT 19/17 A3009 RMK A01 T01880173  RH  091%=      5-min Rain = 0
KVP1 111235Z 20010KT 19/17 A3009 RMK A01 T01880173  RH  091%=      5-min Rain = 0
KVP1 111236Z 20011KT 19/17 A3009 RMK A01 T01880173  RH  091%=      5-min Rain = 0
KVP1 111237Z 20010KT 19/17 A301 RMK A01 T01880173  RH  091%=      5-min Rain = 0
KVP1 111238Z 19010KT 19/17 A301 RMK A01 T01880173  RH  091%=      5-min Rain = 0
KVP1 111239Z 19011KT 19/17 A301 RMK A01 T01880173  RH  091%=      5-min Rain = 0
KVP1 111240Z 19011KT 19/17 A301 RMK A01 T01890174  RH  091%=      5-min Rain = 0
KVP1 111241Z 19011KT 19/17 A301 RMK A01 T01890173  RH  091%=      5-min Rain = 0
KVP1 111242Z 18010KT 19/17 A301 RMK A01 T01890173  RH  090%=      5-min Rain = 0
KVP1 111243Z 18011KT 19/17 A301 RMK A01 T01890173  RH  090%=      5-min Rain = 0
KVP1 111244Z 18011KT 19/17 A301 RMK A01 T01890173  RH  090%=      5-min Rain = 0
KVP1 111245Z 18011KT 19/17 A301 RMK A01 T01890173  RH  090%=      5-min Rain = 0
KVP1 111246Z 18011KT 19/17 A301 RMK A01 T01900173  RH  090%=      5-min Rain = 0
KVP1 111247Z 19011KT 19/17 A301 RMK A01 T01900173  RH  090%=      5-min Rain = 0
KVP1 111248Z 19011KT 19/17 A301 RMK A01 T01900173  RH  090%=      5-min Rain = 0
KVP1 111249Z 20011KT 19/17 A301 RMK A01 T01900173  RH  090%=      5-min Rain = 0
KVP1 111250Z 20011KT 19/17 A301 RMK A01 T01900173  RH  090%=      5-min Rain = 0
KVP1 111251Z 20011KT 19/17 A301 RMK A01 T01900173  RH  090%=      5-min Rain = 0
KVP1 111252Z 20011KT 19/17 A301 RMK A01 T01910174  RH  090%=      5-min Rain = 0
KVP1 111253Z 20011KT 19/17 A301 RMK A01 T01910174  RH  090%=      5-min Rain = 0
KVP1 111254Z 20010KT 19/17 A301 RMK A01 T01910174  RH  090%=      5-min Rain = 0
KVP1 111255Z 20012KT 19/17 A301 RMK A01 T01910174  RH  090%=      5-min Rain = 0
KVP1 111256Z 20010KT 19/17 A301 RMK A01 T01910174  RH  090%=      5-min Rain = 0
KVP1 111257Z 19011KT 19/17 A301 RMK A01 T01910173  RH  090%=      5-min Rain = 0
KVP1 111258Z 19011KT 19/17 A301 RMK A01 T01910174  RH  090%=      5-min Rain = 0
KVP1 111259Z 19011KT 19/17 A301 RMK A01 T01910174  RH  090%=      5-min Rain = 0
KVP1 111300Z 19012KT 19/17 A301 RMK A01 T01920174  RH  090%=      5-min Rain = 0
KVP1 111301Z 19011KT 19/17 A301 RMK A01 T01920174  RH  089%=      5-min Rain = 0
KVP1 111302Z 19011KT 19/17 A301 RMK A01 T01920174  RH  089%=      5-min Rain = 0
KVP1 111303Z 19011KT 19/17 A301 RMK A01 T01920174  RH  089%=      5-min Rain = 0
KVP1 111304Z 19012KT 19/18 A301 RMK A01 T01930175  RH  089%=      5-min Rain = 0
KVP1 111305Z 19012KT 19/17 A301 RMK A01 T01930174  RH  089%=      5-min Rain = 0
KVP1 111306Z 19013KT 19/17 A301 RMK A01 T01930174  RH  089%=      5-min Rain = 0
KVP1 111307Z 19010KT 19/17 A3011 RMK A01 T01930174  RH  089%=      5-min Rain = 0
KVP1 111308Z 19011KT 19/17 A3011 RMK A01 T01930174  RH  089%=      5-min Rain = 0
KVP1 111309Z 19011KT 19/17 A3011 RMK A01 T01930174  RH  089%=      5-min Rain = 0
KVP1 111310Z 19014KT 19/18 A3011 RMK A01 T01930175  RH  089%=      5-min Rain = 0
KVP1 111311Z 18012KT 19/17 A3011 RMK A01 T01940174  RH  088%=      5-min Rain = 0
KVP1 111312Z 19012KT 20/18 A3011 RMK A01 T01950175  RH  088%=      5-min Rain = 0
KVP1 111313Z 19010KT 20/17 A3011 RMK A01 T01950174  RH  088%=      5-min Rain = 0
KVP1 111314Z 18010KT 20/18 A3011 RMK A01 T01950175  RH  088%=      5-min Rain = 0
KVP1 111315Z 19011KT 20/18 A3011 RMK A01 T01960175  RH  088%=      5-min Rain = 0
KVP1 111316Z 19011KT 20/18 A3011 RMK A01 T01960175  RH  088%=      5-min Rain = 0
KVP1 111317Z 18011KT 20/18 A3011 RMK A01 T01960175  RH  088%=      5-min Rain = 0
KVP1 111318Z 19012KT 20/18 A3011 RMK A01 T01960175  RH  087%=      5-min Rain = 0
KVP1 111319Z 18012KT 20/17 A3011 RMK A01 T01960174  RH  087%=      5-min Rain = 0
KVP1 111320Z 18012KT 20/17 A3011 RMK A01 T01950174  RH  088%=      5-min Rain = 0
KVP1 111321Z 19011KT 20/18 A3011 RMK A01 T01950175  RH  088%=      5-min Rain = 0
KVP1 111322Z 18011KT 20/17 A3011 RMK A01 T01950174  RH  088%=      5-min Rain = 0
KVP1 111323Z 18014KT 20/17 A3011 RMK A01 T01960174  RH  087%=      5-min Rain = 0
KVP1 111324Z 18014KT 20/17 A3011 RMK A01 T01960174  RH  087%=      5-min Rain = 0
KVP1 111325Z 18013KT 20/18 A3011 RMK A01 T01970175  RH  087%=      5-min Rain = 0
KVP1 111326Z 18011KT 20/17 A3011 RMK A01 T01970174  RH  087%=      5-min Rain = 0
KVP1 111327Z 18011KT 20/18 A3011 RMK A01 T01970175  RH  087%=      5-min Rain = 0
KVP1 111328Z 18013KT 20/18 A3011 RMK A01 T01970175  RH  087%=      5-min Rain = 0
KVP1 111329Z 18013KT 20/18 A3011 RMK A01 T01970175  RH  087%=      5-min Rain = 0
KVP1 111330Z 19011KT 20/18 A3011 RMK A01 T01970175  RH  087%=      5-min Rain = 0
KVP1 111331Z 18013KT 20/18 A3011 RMK A01 T01980175  RH  087%=      5-min Rain = 0
KVP1 111332Z 18011KT 20/18 A3011 RMK A01 T01980175  RH  086%=      5-min Rain = 0
KVP1 111333Z 18012KT 20/18 A3011 RMK A01 T02000176  RH  086%=      5-min Rain = 0
KVP1 111334Z 18011KT 20/18 A3011 RMK A01 T02000176  RH  086%=      5-min Rain = 0
KVP1 111335Z 18011KT 20/18 A3011 RMK A01 T02000176  RH  086%=      5-min Rain = 0
KVP1 111336Z 18011KT 20/18 A3011 RMK A01 T02000176  RH  086%=      5-min Rain = 0
KVP1 111337Z 18014KT 20/18 A3011 RMK A01 T02010177  RH  086%=      5-min Rain = 0
KVP1 111338Z 18013KT 20/18 A3011 RMK A01 T02000176  RH  086%=      5-min Rain = 0
KVP1 111339Z 18014KT 20/18 A3011 RMK A01 T02000176  RH  086%=      5-min Rain = 0
KVP1 111340Z 18014KT 20/18 A3011 RMK A01 T02000176  RH  086%=      5-min Rain = 0
KVP1 111341Z 18012KT 20/18 A3011 RMK A01 T02000176  RH  086%=      5-min Rain = 0
KVP1 111342Z 18011KT 20/18 A3011 RMK A01 T02010177  RH  086%=      5-min Rain = 0
KVP1 111343Z 18012KT 20/18 A3011 RMK A01 T02030178  RH  086%=      5-min Rain = 0
KVP1 111344Z 18011KT 20/18 A3011 RMK A01 T02040178  RH  085%=      5-min Rain = 0
KVP1 111345Z 18013KT 21/18 A3011 RMK A01 T02050178  RH  084%=      5-min Rain = 0
KVP1 111346Z 18014KT 21/18 A3011 RMK A01 T02050177  RH  084%=      5-min Rain = 0
KVP1 111347Z 19014KT 21/18 A3011 RMK A01 T02050177  RH  084%=      5-min Rain = 0
KVP1 111348Z 19013KT 21/18 A3011 RMK A01 T02060178  RH  084%=      5-min Rain = 0
KVP1 111349Z 19013G18KT 21/18 A3011 RMK A01 T02050177  RH  084%=      5-min Rain = 0
KVP1 111350Z 19014KT 21/18 A3011 RMK A01 T02050177  RH  084%=      5-min Rain = 0
KVP1 111351Z 18013KT 21/18 A3011 RMK A01 T02060177  RH  083%=      5-min Rain = 0
KVP1 111352Z 19014KT 21/18 A3011 RMK A01 T02070177  RH  083%=      5-min Rain = 0
KVP1 111353Z 19015KT 21/18 A3011 RMK A01 T02070177  RH  083%=      5-min Rain = 0
KVP1 111354Z 19016KT 21/18 A3011 RMK A01 T02080177  RH  082%=      5-min Rain = 0
KVP1 111355Z 19014KT 21/18 A3012 RMK A01 T02080177  RH  082%=      5-min Rain = 0
KVP1 111356Z 19014KT 21/18 A3012 RMK A01 T02080177  RH  082%=      5-min Rain = 0
KVP1 111357Z 19015KT 21/18 A3012 RMK A01 T02090176  RH  082%=      5-min Rain = 0
KVP1 111358Z 19014G19KT 21/18 A3012 RMK A01 T02090177  RH  082%=      5-min Rain = 0
KVP1 111359Z 19016KT 21/18 A3012 RMK A01 T02100177  RH  081%=      5-min Rain = 0
KVP1 111400Z 19012KT 21/18 A3012 RMK A01 T02110178  RH  081%=      5-min Rain = 0
KVP1 111401Z 19012KT 21/18 A3012 RMK A01 T02110178  RH  082%=      5-min Rain = 0
KVP1 111402Z 19014KT 21/18 A3012 RMK A01 T02120178  RH  081%=      5-min Rain = 0
KVP1 111403Z 19015KT 21/18 A3012 RMK A01 T02120177  RH  081%=      5-min Rain = 0
KVP1 111404Z 18017KT 21/18 A3012 RMK A01 T02110177  RH  081%=      5-min Rain = 0
KVP1 111405Z 19015KT 21/18 A3012 RMK A01 T02100177  RH  081%=      5-min Rain = 0
KVP1 111406Z 19017KT 21/18 A3012 RMK A01 T02100177  RH  081%=      5-min Rain = 0
KVP1 111407Z 19016KT 21/18 A3012 RMK A01 T02100177  RH  081%=      5-min Rain = 0
KVP1 111408Z 18016KT 21/18 A3012 RMK A01 T02100177  RH  081%=      5-min Rain = 0
KVP1 111409Z 19019KT 21/18 A3012 RMK A01 T02110177  RH  081%=      5-min Rain = 0
KVP1 111410Z 18016KT 21/18 A3012 RMK A01 T02110177  RH  081%=      5-min Rain = 0
KVP1 111411Z 19013KT 21/18 A3012 RMK A01 T02110177  RH  081%=      5-min Rain = 0
KVP1 111412Z 19016G22KT 21/18 A3012 RMK A01 T02120178  RH  081%=      5-min Rain = 0
KVP1 111413Z 19019KT 21/18 A3012 RMK A01 T02130177  RH  080%=      5-min Rain = 0
KVP1 111414Z 19018KT 21/18 A3012 RMK A01 T02130177  RH  080%=      5-min Rain = 0
KVP1 111415Z 19017KT 21/18 A3012 RMK A01 T02130177  RH  080%=      5-min Rain = 0
KVP1 111416Z 19017KT 21/18 A3012 RMK A01 T02130178  RH  080%=      5-min Rain = 0
KVP1 111417Z 19017KT 21/18 A3012 RMK A01 T02130177  RH  080%=      5-min Rain = 0
KVP1 111418Z 19017KT 21/18 A3012 RMK A01 T02140177  RH  080%=      5-min Rain = 0
KVP1 111419Z 19014KT 21/18 A3012 RMK A01 T02140178  RH  080%=      5-min Rain = 0
KVP1 111420Z 19015KT 22/18 A3012 RMK A01 T02160178  RH  079%=      5-min Rain = 0
KVP1 111421Z 19017KT 22/18 A3012 RMK A01 T02170178  RH  079%=      5-min Rain = 0
KVP1 111422Z 19015KT 22/18 A3012 RMK A01 T02180179  RH  078%=      5-min Rain = 0
KVP1 111423Z 19012KT 22/18 A3012 RMK A01 T02200180  RH  078%=      5-min Rain = 0
KVP1 111424Z 18016KT 22/18 A3012 RMK A01 T02220180  RH  077%=      5-min Rain = 0
KVP1 111425Z 19016KT 22/18 A3012 RMK A01 T02230179  RH  076%=      5-min Rain = 0
KVP1 111426Z 19015KT 22/18 A3012 RMK A01 T02210179  RH  077%=      5-min Rain = 0
KVP1 111427Z 19014G21KT 22/18 A3012 RMK A01 T02200179  RH  078%=      5-min Rain = 0
KVP1 111428Z 19015KT 22/18 A3012 RMK A01 T02220179  RH  077%=      5-min Rain = 0
KVP1 111429Z 19012KT 22/18 A3012 RMK A01 T02230180  RH  076%=      5-min Rain = 0
KVP1 111430Z 19016KT 23/18 A3012 RMK A01 T02260180  RH  075%=      5-min Rain = 0
KVP1 111431Z 19015KT 23/18 A3012 RMK A01 T02270180  RH  075%=      5-min Rain = 0
KVP1 111432Z 19018KT 23/18 A3012 RMK A01 T02260179  RH  075%=      5-min Rain = 0
KVP1 111433Z 18017KT 22/18 A3012 RMK A01 T02240178  RH  075%=      5-min Rain = 0
KVP1 111434Z 18017KT 22/18 A3012 RMK A01 T02230179  RH  076%=      5-min Rain = 0
KVP1 111435Z 18015KT 22/18 A3012 RMK A01 T02240179  RH  075%=      5-min Rain = 0
KVP1 111436Z 19018KT 23/18 A3012 RMK A01 T02260179  RH  075%=      5-min Rain = 0
KVP1 111437Z 19017G22KT 23/18 A3012 RMK A01 T02270179  RH  074%=      5-min Rain = 0
KVP1 111438Z 18017KT 23/18 A3012 RMK A01 T02270179  RH  074%=      5-min Rain = 0
KVP1 111439Z 19014KT 23/18 A3012 RMK A01 T02280180  RH  074%=      5-min Rain = 0
KVP1 111440Z 20018KT 23/18 A3012 RMK A01 T02290180  RH  074%=      5-min Rain = 0
KVP1 111441Z 19016KT 23/18 A3012 RMK A01 T02290180  RH  074%=      5-min Rain = 0
KVP1 111442Z 19017KT 23/18 A3012 RMK A01 T02290180  RH  074%=      5-min Rain = 0
KVP1 111443Z 19019KT 23/18 A3012 RMK A01 T02290179  RH  073%=      5-min Rain = 0
KVP1 111444Z 19017KT 23/18 A3012 RMK A01 T02290179  RH  073%=      5-min Rain = 0
KVP1 111445Z 19018KT 23/18 A3012 RMK A01 T02290179  RH  074%=      5-min Rain = 0
KVP1 111446Z 19019KT 23/18 A3012 RMK A01 T02280179  RH  074%=      5-min Rain = 0
KVP1 111447Z 19019KT 23/18 A3012 RMK A01 T02280179  RH  074%=      5-min Rain = 0
KVP1 111448Z 18020KT 23/18 A3012 RMK A01 T02280179  RH  074%=      5-min Rain = 0
KVP1 111449Z 19018KT 23/18 A3012 RMK A01 T02280179  RH  074%=      5-min Rain = 0
KVP1 111450Z 19019KT 23/18 A3012 RMK A01 T02280179  RH  074%=      5-min Rain = 0
KVP1 111451Z 20022KT 23/18 A3012 RMK A01 T02280179  RH  074%=      5-min Rain = 0
KVP1 111452Z 20019KT 23/18 A3012 RMK A01 T02270179  RH  074%=      5-min Rain = 0
KVP1 111453Z 20019KT 23/18 A3012 RMK A01 T02260179  RH  075%=      5-min Rain = 0
KVP1 111454Z 20016KT 23/18 A3013 RMK A01 T02250179  RH  075%=      5-min Rain = 0
KVP1 111455Z 19020KT 23/18 A3012 RMK A01 T02260179  RH  075%=      5-min Rain = 0
KVP1 111456Z 19020KT 23/18 A3013 RMK A01 T02260179  RH  075%=      5-min Rain = 0
KVP1 111457Z 19020KT 23/18 A3013 RMK A01 T02270179  RH  074%=      5-min Rain = 0
KVP1 111458Z 20016G21KT 23/18 A3013 RMK A01 T02290180  RH  074%=      5-min Rain = 0
KVP1 111459Z 19017KT 23/18 A3013 RMK A01 T02320180  RH  073%=      5-min Rain = 0
KVP1 111500Z 20015KT 23/18 A3013 RMK A01 T02320180  RH  072%=      5-min Rain = 0
KVP1 111501Z 20018KT 24/18 A3013 RMK A01 T02350181  RH  072%=      5-min Rain = 0
KVP1 111502Z 19020KT 24/18 A3013 RMK A01 T02350179  RH  071%=      5-min Rain = 0
KVP1 111503Z 19017KT 23/18 A3013 RMK A01 T02330180  RH  072%=      5-min Rain = 0
KVP1 111504Z 19018KT 23/18 A3013 RMK A01 T02330179  RH  072%=      5-min Rain = 0
KVP1 111505Z 19016KT 23/18 A3013 RMK A01 T02340180  RH  072%=      5-min Rain = 0
KVP1 111506Z 19018KT 23/18 A3013 RMK A01 T02340180  RH  071%=      5-min Rain = 0
KVP1 111507Z 19018KT 24/18 A3013 RMK A01 T02350179  RH  071%=      5-min Rain = 0
KVP1 111508Z 20019KT 23/18 A3013 RMK A01 T02340179  RH  071%=      5-min Rain = 0
KVP1 111509Z 20020KT 23/18 A3013 RMK A01 T02330178  RH  071%=      5-min Rain = 0
KVP1 111510Z 21017G23KT 23/18 A3013 RMK A01 T02320179  RH  072%=      5-min Rain = 0
KVP1 111511Z 20016KT 24/18 A3013 RMK A01 T02350180  RH  071%=      5-min Rain = 0
KVP1 111512Z 20020KT 24/18 A3013 RMK A01 T02350178  RH  070%=      5-min Rain = 0
KVP1 111513Z 20015KT 23/18 A3013 RMK A01 T02330178  RH  071%=      5-min Rain = 0
KVP1 111514Z 20015G20KT 23/18 A3013 RMK A01 T02340180  RH  071%=      5-min Rain = 0
KVP1 111515Z 19017G23KT 24/18 A3013 RMK A01 T02360180  RH  071%=      5-min Rain = 0
KVP1 111516Z 19019KT 24/18 A3013 RMK A01 T02370180  RH  070%=      5-min Rain = 0
KVP1 111517Z 20018G24KT 24/18 A3013 RMK A01 T02380180  RH  070%=      5-min Rain = 0
KVP1 111518Z 19019KT 24/18 A3013 RMK A01 T02380179  RH  069%=      5-min Rain = 0
KVP1 111519Z 20019KT 24/18 A3013 RMK A01 T02370179  RH  070%=      5-min Rain = 0
KVP1 111520Z 20020KT 24/18 A3013 RMK A01 T02360178  RH  070%=      5-min Rain = 0
KVP1 111521Z 20022KT 24/18 A3013 RMK A01 T02370177  RH  069%=      5-min Rain = 0
KVP1 111522Z 19021KT 24/18 A3013 RMK A01 T02350178  RH  070%=      5-min Rain = 0
KVP1 111523Z 19018KT 23/18 A3013 RMK A01 T02330177  RH  071%=      5-min Rain = 0
KVP1 111524Z 19020KT 24/18 A3013 RMK A01 T02350178  RH  071%=      5-min Rain = 0
KVP1 111525Z 19019KT 24/18 A3013 RMK A01 T02360178  RH  070%=      5-min Rain = 0
KVP1 111526Z 19018KT 24/18 A3013 RMK A01 T02370178  RH  070%=      5-min Rain = 0
KVP1 111527Z 20016KT 24/18 A3013 RMK A01 T02380179  RH  069%=      5-min Rain = 0
KVP1 111528Z 19018KT 24/18 A3013 RMK A01 T02380178  RH  069%=      5-min Rain = 0
KVP1 111529Z 19017KT 24/18 A3013 RMK A01 T02380178  RH  069%=      5-min Rain = 0
KVP1 111530Z 19020KT 24/18 A3013 RMK A01 T02380178  RH  069%=      5-min Rain = 0
KVP1 111531Z 19016KT 24/18 A3013 RMK A01 T02390179  RH  069%=      5-min Rain = 0
KVP1 111532Z 20017KT 24/18 A3013 RMK A01 T02390178  RH  069%=      5-min Rain = 0
KVP1 111533Z 20015KT 24/18 A3013 RMK A01 T02360177  RH  070%=      5-min Rain = 0
KVP1 111534Z 18016KT 24/18 A3013 RMK A01 T02350178  RH  070%=      5-min Rain = 0
KVP1 111535Z 18020KT 24/18 A3013 RMK A01 T02370177  RH  069%=      5-min Rain = 0
KVP1 111536Z 18019KT 24/18 A3013 RMK A01 T02370177  RH  069%=      5-min Rain = 0
KVP1 111537Z 19020KT 24/18 A3013 RMK A01 T02370177  RH  069%=      5-min Rain = 0
KVP1 111538Z 19018KT 24/18 A3013 RMK A01 T02370177  RH  069%=      5-min Rain = 0
KVP1 111539Z 19017KT 24/18 A3013 RMK A01 T02360176  RH  069%=      5-min Rain = 0
KVP1 111540Z 19018KT 23/18 A3013 RMK A01 T02340176  RH  070%=      5-min Rain = 0
KVP1 111541Z 19016KT 23/18 A3013 RMK A01 T02320175  RH  070%=      5-min Rain = 0
KVP1 111542Z 18015KT 23/18 A3013 RMK A01 T02310176  RH  071%=      5-min Rain = 0
KVP1 111543Z 18014KT 23/18 A3013 RMK A01 T02310177  RH  072%=      5-min Rain = 0
KVP1 111544Z 19020KT 24/18 A3013 RMK A01 T02350178  RH  070%=      5-min Rain = 0
KVP1 111545Z 19019KT 24/18 A3013 RMK A01 T02350175  RH  069%=      5-min Rain = 0
KVP1 111546Z 19018KT 23/18 A3013 RMK A01 T02340176  RH  070%=      5-min Rain = 0
KVP1 111547Z 19017KT 24/18 A3013 RMK A01 T02370178  RH  069%=      5-min Rain = 0
KVP1 111548Z 19018KT 24/18 A3013 RMK A01 T02390176  RH  068%=      5-min Rain = 0
KVP1 111549Z 18017KT 24/18 A3013 RMK A01 T02370176  RH  069%=      5-min Rain = 0
KVP1 111550Z 18019KT 24/18 A3013 RMK A01 T02360176  RH  069%=      5-min Rain = 0
KVP1 111551Z 18019KT 24/18 A3013 RMK A01 T02360176  RH  069%=      5-min Rain = 0
KVP1 111552Z 19018KT 24/18 A3013 RMK A01 T02360176  RH  069%=      5-min Rain = 0
KVP1 111553Z 19019KT 24/18 A3013 RMK A01 T02360176  RH  069%=      5-min Rain = 0
KVP1 111554Z 20018KT 24/18 A3013 RMK A01 T02370176  RH  069%=      5-min Rain = 0
KVP1 111555Z 20016KT 24/18 A3013 RMK A01 T02370176  RH  068%=      5-min Rain = 0
KVP1 111556Z 19017KT 24/18 A3013 RMK A01 T02380176  RH  068%=      5-min Rain = 0
KVP1 111557Z 18016KT 24/18 A3013 RMK A01 T02380176  RH  068%=      5-min Rain = 0
KVP1 111558Z 18019KT 24/18 A3013 RMK A01 T02410177  RH  067%=      5-min Rain = 0
KVP1 111559Z 18019KT 24/18 A3013 RMK A01 T02420175  RH  066%=      5-min Rain = 0
KVP1 111600Z 19019KT 24/18 A3013 RMK A01 T02400176  RH  067%=      5-min Rain = 0
KVP1 111601Z 18018KT 24/18 A3013 RMK A01 T02390176  RH  068%=      5-min Rain = 0
KVP1 111602Z 18017KT 24/18 A3013 RMK A01 T02380176  RH  068%=      5-min Rain = 0
KVP1 111603Z 20019KT 24/18 A3013 RMK A01 T02380176  RH  068%=      5-min Rain = 0
KVP1 111604Z 19020KT 24/18 A3013 RMK A01 T02370175  RH  068%=      5-min Rain = 0
KVP1 111605Z 19021KT 24/18 A3013 RMK A01 T02360175  RH  068%=      5-min Rain = 0
KVP1 111606Z 18016KT 24/18 A3013 RMK A01 T02360175  RH  069%=      5-min Rain = 0
KVP1 111607Z 18018KT 24/18 A3013 RMK A01 T02380176  RH  068%=      5-min Rain = 0
KVP1 111608Z 19016KT 24/18 A3013 RMK A01 T02390176  RH  068%=      5-min Rain = 0
KVP1 111609Z 19015KT 24/18 A3012 RMK A01 T02410177  RH  067%=      5-min Rain = 0
KVP1 111610Z 20017KT 24/18 A3012 RMK A01 T02410177  RH  067%=      5-min Rain = 0
KVP1 111611Z 19016KT 24/18 A3013 RMK A01 T02400177  RH  068%=      5-min Rain = 0
KVP1 111612Z 19017G23KT 24/18 A3012 RMK A01 T02400176  RH  068%=      5-min Rain = 0
KVP1 111613Z 19016G22KT 24/18 A3013 RMK A01 T02410176  RH  067%=      5-min Rain = 0
KVP1 111614Z 19017KT 24/18 A3013 RMK A01 T02430178  RH  067%=      5-min Rain = 0
KVP1 111615Z 19016KT 24/18 A3013 RMK A01 T02430176  RH  066%=      5-min Rain = 0
KVP1 111616Z 19014KT 24/18 A3013 RMK A01 T02410177  RH  067%=      5-min Rain = 0
KVP1 111617Z 18016KT 24/18 A3013 RMK A01 T02440178  RH  067%=      5-min Rain = 0
KVP1 111618Z 18019KT 25/18 A3013 RMK A01 T02470177  RH  065%=      5-min Rain = 0
KVP1 111619Z 18018KT 25/18 A3013 RMK A01 T02450177  RH  066%=      5-min Rain = 0
KVP1 111620Z 18017KT 24/18 A3013 RMK A01 T02440178  RH  066%=      5-min Rain = 0
KVP1 111621Z 18018KT 25/18 A3013 RMK A01 T02450177  RH  066%=      5-min Rain = 0
KVP1 111622Z 18017KT 25/18 A3013 RMK A01 T02450178  RH  066%=      5-min Rain = 0
KVP1 111623Z 18016KT 25/18 A3013 RMK A01 T02460176  RH  065%=      5-min Rain = 0
KVP1 111624Z 19018KT 24/18 A3013 RMK A01 T02440177  RH  066%=      5-min Rain = 0
KVP1 111625Z 18016KT 24/18 A3013 RMK A01 T02430177  RH  066%=      5-min Rain = 0
KVP1 111626Z 18019KT 24/18 A3012 RMK A01 T02420176  RH  067%=      5-min Rain = 0
KVP1 111627Z 19015KT 24/18 A3013 RMK A01 T02420176  RH  066%=      5-min Rain = 0
KVP1 111628Z 17016KT 24/18 A3013 RMK A01 T02440177  RH  066%=      5-min Rain = 0
KVP1 111629Z 18016KT 25/18 A3012 RMK A01 T02470177  RH  065%=      5-min Rain = 0
KVP1 111630Z 18017KT 25/18 A3013 RMK A01 T02490177  RH  065%=      5-min Rain = 0
KVP1 111631Z 19017KT 25/18 A3013 RMK A01 T02470177  RH  065%=      5-min Rain = 0
KVP1 111632Z 19018KT 25/18 A3012 RMK A01 T02460177  RH  066%=      5-min Rain = 0
KVP1 111633Z 18016KT 25/18 A3013 RMK A01 T02450177  RH  066%=      5-min Rain = 0
KVP1 111634Z 18014KT 25/18 A3013 RMK A01 T02450178  RH  066%=      5-min Rain = 0
KVP1 111635Z 19015KT 25/18 A3013 RMK A01 T02470178  RH  065%=      5-min Rain = 0
KVP1 111636Z 20016KT 25/18 A3013 RMK A01 T02470177  RH  065%=      5-min Rain = 0
KVP1 111637Z 19016KT 25/18 A3013 RMK A01 T02460177  RH  066%=      5-min Rain = 0
KVP1 111638Z 19015KT 24/18 A3013 RMK A01 T02430177  RH  066%=      5-min Rain = 0
KVP1 111639Z 18014KT 24/18 A3013 RMK A01 T02420177  RH  067%=      5-min Rain = 0
KVP1 111640Z 18014KT 24/18 A3013 RMK A01 T02430178  RH  067%=      5-min Rain = 0
KVP1 111641Z 20013KT 25/18 A3012 RMK A01 T02480179  RH  066%=      5-min Rain = 0
KVP1 111642Z 19013KT 25/18 A3012 RMK A01 T02500178  RH  064%=      5-min Rain = 0
KVP1 111643Z 18016G21KT 25/18 A3012 RMK A01 T02510179  RH  064%=      5-min Rain = 0
KVP1 111644Z 17015KT 25/18 A3012 RMK A01 T02520178  RH  064%=      5-min Rain = 0
KVP1 111645Z 18015KT 25/18 A3012 RMK A01 T02490177  RH  064%=      5-min Rain = 0
KVP1 111646Z 18015KT 25/18 A3012 RMK A01 T02480178  RH  065%=      5-min Rain = 0
KVP1 111647Z 18014KT 25/18 A3012 RMK A01 T02490178  RH  065%=      5-min Rain = 0
KVP1 111648Z 18012KT 25/18 A3012 RMK A01 T02500179  RH  065%=      5-min Rain = 0
KVP1 111649Z 18013G18KT 25/18 A3012 RMK A01 T02540181  RH  064%=      5-min Rain = 0
KVP1 111650Z 17014KT 26/18 A3012 RMK A01 T02560180  RH  063%=      5-min Rain = 0
KVP1 111651Z 18015KT 26/18 A3012 RMK A01 T02570180  RH  062%=      5-min Rain = 0
KVP1 111652Z 18017KT 26/18 A3012 RMK A01 T02570179  RH  062%=      5-min Rain = 0
KVP1 111653Z 18015KT 26/18 A3012 RMK A01 T02560179  RH  062%=      5-min Rain = 0
KVP1 111654Z 18014KT 26/18 A3012 RMK A01 T02560179  RH  062%=      5-min Rain = 0
KVP1 111655Z 17015G21KT 26/18 A3012 RMK A01 T02550179  RH  063%=      5-min Rain = 0
KVP1 111656Z 16013KT 25/18 A3012 RMK A01 T02530179  RH  063%=      5-min Rain = 0
KVP1 111657Z 18015KT 25/18 A3012 RMK A01 T02530179  RH  063%=      5-min Rain = 0
KVP1 111658Z 17015KT 25/18 A3012 RMK A01 T02540178  RH  063%=      5-min Rain = 0
KVP1 111659Z 17014KT 25/18 A3012 RMK A01 T02540177  RH  062%=      5-min Rain = 0
KVP1 111700Z 18015KT 25/18 A3012 RMK A01 T02540178  RH  063%=      5-min Rain = 0
KVP1 111701Z 17016KT 26/18 A3012 RMK A01 T02550179  RH  063%=      5-min Rain = 0
KVP1 111702Z 18013KT 26/18 A3012 RMK A01 T02560179  RH  062%=      5-min Rain = 0
KVP1 111703Z 18014KT 26/18 A3012 RMK A01 T02570179  RH  062%=      5-min Rain = 0
KVP1 111704Z 20015KT 26/18 A3012 RMK A01 T02580179  RH  062%=      5-min Rain = 0
KVP1 111705Z 20017KT 26/18 A3012 RMK A01 T02590178  RH  061%=      5-min Rain = 0
KVP1 111706Z 20013KT 26/18 A3012 RMK A01 T02570178  RH  061%=      5-min Rain = 0
KVP1 111707Z 18014KT 26/18 A3012 RMK A01 T02560178  RH  062%=      5-min Rain = 0
KVP1 111708Z 17015G20KT 26/18 A3012 RMK A01 T02560179  RH  062%=      5-min Rain = 0
KVP1 111709Z 19015KT 26/18 A3012 RMK A01 T02570178  RH  062%=      5-min Rain = 0
KVP1 111710Z 18013KT 26/18 A3012 RMK A01 T02570179  RH  062%=      5-min Rain = 0
KVP1 111711Z 19013KT 26/18 A3012 RMK A01 T02560178  RH  062%=      5-min Rain = 0
KVP1 111712Z 19014KT 26/18 A3012 RMK A01 T02560179  RH  062%=      5-min Rain = 0
KVP1 111713Z 18013KT 26/18 A3012 RMK A01 T02580179  RH  062%=      5-min Rain = 0
KVP1 111714Z 18015KT 26/18 A3012 RMK A01 T02610180  RH  061%=      5-min Rain = 0
KVP1 111715Z 19018KT 26/18 A3012 RMK A01 T02620179  RH  060%=      5-min Rain = 0
KVP1 111716Z 19017KT 26/18 A3012 RMK A01 T02600178  RH  060%=      5-min Rain = 0
KVP1 111717Z 19015KT 26/18 A3012 RMK A01 T02570178  RH  062%=      5-min Rain = 0
KVP1 111718Z 19013KT 26/18 A3012 RMK A01 T02560178  RH  062%=      5-min Rain = 0
KVP1 111719Z 19012KT 26/18 A3012 RMK A01 T02580180  RH  062%=      5-min Rain = 0
KVP1 111720Z 19014KT 26/18 A3012 RMK A01 T02630180  RH  060%=      5-min Rain = 0
KVP1 111721Z 18014G19KT 26/18 A3012 RMK A01 T02630179  RH  060%=      5-min Rain = 0
KVP1 111722Z 18014KT 26/18 A3012 RMK A01 T02620179  RH  060%=      5-min Rain = 0
KVP1 111723Z 17014G19KT 26/18 A3012 RMK A01 T02620180  RH  060%=      5-min Rain = 0
KVP1 111724Z 18013G18KT 26/18 A3012 RMK A01 T02630179  RH  060%=      5-min Rain = 0
KVP1 111725Z 20013KT 26/18 A3012 RMK A01 T02630180  RH  060%=      5-min Rain = 0
KVP1 111726Z 20011KT 26/18 A3012 RMK A01 T02620179  RH  060%=      5-min Rain = 0
KVP1 111727Z 19014KT 26/18 A3012 RMK A01 T02620180  RH  061%=      5-min Rain = 0
KVP1 111728Z 19012KT 27/18 A3012 RMK A01 T02650178  RH  059%=      5-min Rain = 0
KVP1 111729Z 19012KT 27/18 A3012 RMK A01 T02670180  RH  059%=      5-min Rain = 0
KVP1 111730Z 18015KT 27/18 A3012 RMK A01 T02680180  RH  059%=      5-min Rain = 0
KVP1 111731Z 18010KT 26/18 A3012 RMK A01 T02640178  RH  059%=      5-min Rain = 0
KVP1 111732Z 18012G18KT 26/18 A3012 RMK A01 T02620180  RH  061%=      5-min Rain = 0
KVP1 111733Z 18013KT 27/18 A3012 RMK A01 T02670181  RH  059%=      5-min Rain = 0
KVP1 111734Z 18013KT 27/18 A3012 RMK A01 T02680181  RH  059%=      5-min Rain = 0
KVP1 111735Z 17014KT 27/18 A3012 RMK A01 T02700180  RH  058%=      5-min Rain = 0
KVP1 111736Z 17013KT 27/18 A3012 RMK A01 T02700179  RH  057%=      5-min Rain = 0
KVP1 111737Z 18017KT 27/18 A3012 RMK A01 T02690179  RH  058%=      5-min Rain = 0
KVP1 111738Z 18015KT 27/18 A3012 RMK A01 T02680178  RH  058%=      5-min Rain = 0
KVP1 111739Z 18015KT 27/18 A3012 RMK A01 T02660178  RH  058%=      5-min Rain = 0
KVP1 111740Z 17014KT 26/18 A3012 RMK A01 T02640178  RH  059%=      5-min Rain = 0
KVP1 111741Z 18010KT 26/18 A3012 RMK A01 T02630178  RH  059%=      5-min Rain = 0
KVP1 111742Z 20014KT 27/18 A3012 RMK A01 T02670178  RH  058%=      5-min Rain = 0
KVP1 111743Z 19014KT 27/18 A3012 RMK A01 T02670179  RH  058%=      5-min Rain = 0
KVP1 111744Z 18014KT 27/18 A3012 RMK A01 T02690179  RH  058%=      5-min Rain = 0
KVP1 111745Z 19011KT 27/18 A3012 RMK A01 T02680180  RH  059%=      5-min Rain = 0
KVP1 111746Z 19010KT 27/18 A3012 RMK A01 T02670180  RH  059%=      5-min Rain = 0
KVP1 111747Z 19009KT 27/18 A3012 RMK A01 T02670179  RH  059%=      5-min Rain = 0
KVP1 111748Z 17013KT 27/18 A3012 RMK A01 T02660180  RH  059%=      5-min Rain = 0
KVP1 111749Z 18014KT 27/18 A3012 RMK A01 T02670179  RH  058%=      5-min Rain = 0
KVP1 111750Z 18012KT 27/18 A3012 RMK A01 T02680179  RH  058%=      5-min Rain = 0
KVP1 111751Z 18012KT 27/18 A3012 RMK A01 T02720181  RH  057%=      5-min Rain = 0
KVP1 111752Z 17012KT 28/18 A3012 RMK A01 T02750180  RH  056%=      5-min Rain = 0
KVP1 111753Z 18011KT 27/18 A3012 RMK A01 T02720180  RH  057%=      5-min Rain = 0
KVP1 111754Z 19014KT 27/18 A3012 RMK A01 T02720179  RH  057%=      5-min Rain = 0
KVP1 111755Z 19014KT 27/18 A3012 RMK A01 T02720180  RH  057%=      5-min Rain = 0
KVP1 111756Z 20010KT 27/18 A3012 RMK A01 T02710178  RH  057%=      5-min Rain = 0
KVP1 111757Z 20011KT 27/18 A3012 RMK A01 T02700181  RH  058%=      5-min Rain = 0
KVP1 111758Z 19009G14KT 27/18 A3012 RMK A01 T02740182  RH  057%=      5-min Rain = 0
KVP1 111759Z 18014G19KT 28/18 A3011 RMK A01 T02760182  RH  056%=      5-min Rain = 0
KVP1 111800Z 18013KT 28/18 A3011 RMK A01 T02770180  RH  055%=      5-min Rain = 0
KVP1 111801Z 16013G21KT 28/18 A3011 RMK A01 T02750181  RH  057%=      5-min Rain = 0
KVP1 111802Z 17016KT 28/18 A3011 RMK A01 T02750181  RH  057%=      5-min Rain = 0
KVP1 111803Z 17015G20KT 27/18 A3011 RMK A01 T02740182  RH  057%=      5-min Rain = 0
KVP1 111804Z 17015KT 28/18 A3011 RMK A01 T02770180  RH  056%=      5-min Rain = 0
KVP1 111805Z 18010KT 28/18 A3011 RMK A01 T02750181  RH  057%=      5-min Rain = 0
KVP1 111806Z 20014KT 28/18 A3011 RMK A01 T02780181  RH  056%=      5-min Rain = 0
KVP1 111807Z 20011KT 28/18 A3011 RMK A01 T02800179  RH  054%=      5-min Rain = 0
KVP1 111808Z 18011KT 28/18 A3011 RMK A01 T02780180  RH  055%=      5-min Rain = 0
KVP1 111809Z 17012KT 28/18 A3011 RMK A01 T02760181  RH  056%=      5-min Rain = 0
KVP1 111810Z 17012KT 28/18 A3011 RMK A01 T02770181  RH  056%=      5-min Rain = 0
KVP1 111811Z 19011KT 28/18 A3011 RMK A01 T02780181  RH  055%=      5-min Rain = 0
KVP1 111812Z 18014G19KT 28/18 A3011 RMK A01 T02800180  RH  055%=      5-min Rain = 0
KVP1 111813Z 19015KT 28/18 A3011 RMK A01 T02810180  RH  055%=      5-min Rain = 0
KVP1 111814Z 19015KT 28/18 A3011 RMK A01 T02820180  RH  054%=      5-min Rain = 0
KVP1 111815Z 18014KT 28/18 A3011 RMK A01 T02820180  RH  054%=      5-min Rain = 0
KVP1 111816Z 21014KT 28/18 A3011 RMK A01 T02800180  RH  055%=      5-min Rain = 0
KVP1 111817Z 20011KT 28/18 A3011 RMK A01 T02780181  RH  055%=      5-min Rain = 0
KVP1 111818Z 18011KT 28/18 A3011 RMK A01 T02780182  RH  056%=      5-min Rain = 0
KVP1 111819Z 17012KT 28/18 A3011 RMK A01 T02800182  RH  055%=      5-min Rain = 0
KVP1 111820Z 17013G18KT 28/18 A3011 RMK A01 T02790181  RH  055%=      5-min Rain = 0
KVP1 111821Z 18017KT 28/18 A3011 RMK A01 T02800182  RH  055%=      5-min Rain = 0
KVP1 111822Z 17015G20KT 28/18 A3011 RMK A01 T02840181  RH  054%=      5-min Rain = 0
KVP1 111823Z 18013KT 28/18 A3011 RMK A01 T02830181  RH  054%=      5-min Rain = 0
KVP1 111824Z 19011KT 28/18 A3011 RMK A01 T02800180  RH  054%=      5-min Rain = 0
KVP1 111825Z 19016KT 28/18 A301 RMK A01 T02800181  RH  055%=      5-min Rain = 0
KVP1 111826Z 18013KT 28/18 A301 RMK A01 T02830180  RH  054%=      5-min Rain = 0
KVP1 111827Z 17011KT 28/18 A301 RMK A01 T02820181  RH  054%=      5-min Rain = 0
KVP1 111828Z 16009KT 28/18 A301 RMK A01 T02810181  RH  054%=      5-min Rain = 0
KVP1 111829Z 18008KT 28/18 A301 RMK A01 T02810181  RH  055%=      5-min Rain = 0
KVP1 111830Z 18012KT 28/18 A301 RMK A01 T02840184  RH  055%=      5-min Rain = 0
KVP1 111831Z 17014KT 29/18 A301 RMK A01 T02900184  RH  053%=      5-min Rain = 0
KVP1 111832Z 17015KT 29/18 A301 RMK A01 T02900181  RH  052%=      5-min Rain = 0
KVP1 111833Z 17016KT 29/18 A301 RMK A01 T02870182  RH  053%=      5-min Rain = 0
KVP1 111834Z 16013KT 29/18 A301 RMK A01 T02860182  RH  053%=      5-min Rain = 0
KVP1 111835Z 17008KT 29/18 A301 RMK A01 T02850181  RH  053%=      5-min Rain = 0
KVP1 111836Z 16009KT 28/18 A301 RMK A01 T02820182  RH  054%=      5-min Rain = 0
KVP1 111837Z 18015KT 28/18 A3009 RMK A01 T02840182  RH  054%=      5-min Rain = 0
KVP1 111838Z 18013KT 29/18 A301 RMK A01 T02880182  RH  053%=      5-min Rain = 0
KVP1 111839Z 18014KT 29/18 A301 RMK A01 T02870180  RH  052%=      5-min Rain = 0
KVP1 111840Z 19014KT 29/18 A301 RMK A01 T02860180  RH  053%=      5-min Rain = 0
KVP1 111841Z 20011KT 28/18 A301 RMK A01 T02840180  RH  053%=      5-min Rain = 0
KVP1 111842Z 16011KT 28/18 A301 RMK A01 T02830181  RH  054%=      5-min Rain = 0
KVP1 111843Z 16014KT 29/18 A301 RMK A01 T02860179  RH  053%=      5-min Rain = 0
KVP1 111844Z 16012KT 29/18 A301 RMK A01 T02870180  RH  053%=      5-min Rain = 0
KVP1 111845Z 17017KT 29/18 A301 RMK A01 T02870180  RH  052%=      5-min Rain = 0
KVP1 111846Z 17013G18KT 29/18 A301 RMK A01 T02860180  RH  053%=      5-min Rain = 0
KVP1 111847Z 18011KT 29/18 A301 RMK A01 T02850180  RH  053%=      5-min Rain = 0
KVP1 111848Z 16011G18KT 28/18 A301 RMK A01 T02840181  RH  054%=      5-min Rain = 0
KVP1 111849Z 17013KT 29/18 A301 RMK A01 T02870181  RH  053%=      5-min Rain = 0
KVP1 111850Z 17011KT 29/18 A301 RMK A01 T02870180  RH  052%=      5-min Rain = 0
KVP1 111851Z 17017KT 29/18 A301 RMK A01 T02850180  RH  053%=      5-min Rain = 0
KVP1 111852Z 19016KT 29/18 A301 RMK A01 T02870179  RH  052%=      5-min Rain = 0
KVP1 111853Z 18015KT 29/18 A301 RMK A01 T02850181  RH  053%=      5-min Rain = 0
KVP1 111854Z 18012KT 29/18 A301 RMK A01 T02860179  RH  053%=      5-min Rain = 0
KVP1 111855Z 17011KT 29/18 A301 RMK A01 T02870180  RH  052%=      5-min Rain = 0
KVP1 111856Z 17013KT 29/18 A301 RMK A01 T02890181  RH  052%=      5-min Rain = 0
KVP1 111857Z 16016KT 29/18 A3009 RMK A01 T02930181  RH  051%=      5-min Rain = 0
KVP1 111858Z 18015KT 29/18 A3009 RMK A01 T02930181  RH  051%=      5-min Rain = 0
KVP1 111859Z 18014G20KT 29/18 A3009 RMK A01 T02930180  RH  051%=      5-min Rain = 0
KVP1 111900Z 17015KT 29/18 A301 RMK A01 T02910181  RH  052%=      5-min Rain = 0
KVP1 111901Z 18013KT 29/18 A301 RMK A01 T02890180  RH  052%=      5-min Rain = 0
KVP1 111902Z 17011KT 28/18 A301 RMK A01 T02840178  RH  053%=      5-min Rain = 0
KVP1 111903Z 18010KT 28/18 A3009 RMK A01 T02800178  RH  054%=      5-min Rain = 0
KVP1 111904Z 19010KT 28/18 A3009 RMK A01 T02790179  RH  055%=      5-min Rain = 0
KVP1 111905Z 18014KT 28/18 A3009 RMK A01 T02830181  RH  054%=      5-min Rain = 0
KVP1 111906Z 17015KT 29/18 A3009 RMK A01 T02850180  RH  053%=      5-min Rain = 0
KVP1 111907Z 18014KT 28/18 A3009 RMK A01 T02840180  RH  053%=      5-min Rain = 0
KVP1 111908Z 17014KT 29/18 A3009 RMK A01 T02870181  RH  053%=      5-min Rain = 0
KVP1 111909Z 18012KT 29/18 A3009 RMK A01 T02900182  RH  052%=      5-min Rain = 0
KVP1 111910Z 17014G21KT 29/18 A3009 RMK A01 T02900180  RH  052%=      5-min Rain = 0
KVP1 111911Z 17018KT 29/18 A3009 RMK A01 T02910181  RH  052%=      5-min Rain = 0
KVP1 111912Z 17014KT 29/18 A3009 RMK A01 T02930181  RH  051%=      5-min Rain = 0
KVP1 111913Z 18014KT 30/18 A3009 RMK A01 T02950181  RH  050%=      5-min Rain = 0
KVP1 111914Z 18014G21KT 30/18 A3009 RMK A01 T02950180  RH  050%=      5-min Rain = 0
KVP1 111915Z 18015G21KT 29/18 A3009 RMK A01 T02930180  RH  051%=      5-min Rain = 0
KVP1 111916Z 17017KT 30/18 A3009 RMK A01 T02960182  RH  050%=      5-min Rain = 0
KVP1 111917Z 17016KT 30/18 A3009 RMK A01 T02980181  RH  050%=      5-min Rain = 0
KVP1 111918Z 18016KT 30/18 A3009 RMK A01 T02950182  RH  050%=      5-min Rain = 0
KVP1 111919Z 18013KT 30/18 A3009 RMK A01 T02950181  RH  051%=      5-min Rain = 0
KVP1 111920Z 17012KT 30/18 A3009 RMK A01 T02970183  RH  050%=      5-min Rain = 0
KVP1 111921Z 17010KT 30/18 A3009 RMK A01 T02980183  RH  050%=      5-min Rain = 0
KVP1 111922Z 17015KT 30/18 A3008 RMK A01 T02990182  RH  050%=      5-min Rain = 0
KVP1 111923Z 18017G22KT 30/18 A3008 RMK A01 T02990181  RH  049%=      5-min Rain = 0
KVP1 111924Z 17015KT 30/18 A3008 RMK A01 T02990181  RH  049%=      5-min Rain = 0
KVP1 111925Z 18015KT 30/18 A3008 RMK A01 T02990181  RH  049%=      5-min Rain = 0
KVP1 111926Z 17015KT 29/18 A3008 RMK A01 T02910181  RH  051%=      5-min Rain = 0
KVP1 111927Z 17011KT 28/18 A3008 RMK A01 T02840180  RH  053%=      5-min Rain = 0
KVP1 111928Z 17012KT 28/18 A3008 RMK A01 T02800181  RH  055%=      5-min Rain = 0
KVP1 111929Z 19013KT 28/18 A3008 RMK A01 T02800182  RH  055%=      5-min Rain = 0
KVP1 111930Z 18014G19KT 29/18 A3008 RMK A01 T02870184  RH  054%=      5-min Rain = 0
KVP1 111931Z 19014G19KT 30/18 A3008 RMK A01 T02950183  RH  051%=      5-min Rain = 0
KVP1 111932Z 18015G21KT 30/18 A3008 RMK A01 T02970183  RH  050%=      5-min Rain = 0
KVP1 111933Z 18015KT 30/18 A3008 RMK A01 T02980181  RH  049%=      5-min Rain = 0
KVP1 111934Z 17013KT 29/18 A3008 RMK A01 T02940181  RH  050%=      5-min Rain = 0
KVP1 111935Z 16013KT 29/18 A3008 RMK A01 T02930181  RH  051%=      5-min Rain = 0
KVP1 111936Z 16014KT 29/18 A3008 RMK A01 T02930181  RH  051%=      5-min Rain = 0
KVP1 111937Z 19014KT 29/18 A3007 RMK A01 T02920181  RH  051%=      5-min Rain = 0
KVP1 111938Z 18019KT 29/18 A3008 RMK A01 T02920182  RH  052%=      5-min Rain = 0
KVP1 111939Z 18016KT 30/18 A3008 RMK A01 T02950183  RH  051%=      5-min Rain = 0
KVP1 111940Z 18015KT 30/18 A3008 RMK A01 T02970183  RH  050%=      5-min Rain = 0
KVP1 111941Z 17013KT 30/18 A3008 RMK A01 T02970183  RH  050%=      5-min Rain = 0
KVP1 111942Z 18015KT 30/18 A3008 RMK A01 T02970183  RH  050%=      5-min Rain = 0
KVP1 111943Z 19010KT 30/18 A3007 RMK A01 T02970182  RH  050%=      5-min Rain = 0
KVP1 111944Z 19011KT 30/18 A3007 RMK A01 T02950182  RH  051%=      5-min Rain = 0
KVP1 111945Z 18015KT 29/18 A3007 RMK A01 T02940182  RH  051%=      5-min Rain = 0
KVP1 111946Z 17014KT 30/18 A3007 RMK A01 T02970183  RH  050%=      5-min Rain = 0
KVP1 111947Z 17017KT 30/18 A3007 RMK A01 T02980183  RH  050%=      5-min Rain = 0
KVP1 111948Z 17016KT 30/18 A3007 RMK A01 T02970183  RH  050%=      5-min Rain = 0
KVP1 111949Z 16014KT 30/18 A3007 RMK A01 T02960183  RH  051%=      5-min Rain = 0
KVP1 111950Z 16015KT 29/18 A3007 RMK A01 T02940182  RH  051%=      5-min Rain = 0
KVP1 111951Z 16014KT 30/18 A3007 RMK A01 T02960183  RH  051%=      5-min Rain = 0
KVP1 111952Z 18016KT 30/18 A3007 RMK A01 T02970183  RH  050%=      5-min Rain = 0
KVP1 111953Z 18015KT 30/18 A3007 RMK A01 T02970181  RH  050%=      5-min Rain = 0
KVP1 111954Z 16015KT 29/18 A3007 RMK A01 T02940182  RH  051%=      5-min Rain = 0
KVP1 111955Z 17015G20KT 29/18 A3007 RMK A01 T02930182  RH  051%=      5-min Rain = 0
KVP1 111956Z 16017KT 29/18 A3007 RMK A01 T02930183  RH  051%=      5-min Rain = 0
KVP1 111957Z 16014KT 29/18 A3007 RMK A01 T02930182  RH  051%=      5-min Rain = 0
KVP1 111958Z 18013KT 29/18 A3007 RMK A01 T02930183  RH  052%=      5-min Rain = 0
KVP1 111959Z 17017G22KT 30/18 A3007 RMK A01 T02990184  RH  050%=      5-min Rain = 0
KVP1 112000Z 17014G20KT 30/18 A3007 RMK A01 T03020184  RH  049%=      5-min Rain = 0
KVP1 112001Z 17016KT 30/18 A3007 RMK A01 T03020184  RH  049%=      5-min Rain = 0
KVP1 112002Z 18016KT 30/18 A3007 RMK A01 T02990182  RH  050%=      5-min Rain = 0
KVP1 112003Z 18017KT 30/18 A3006 RMK A01 T02950182  RH  051%=      5-min Rain = 0
KVP1 112004Z 19016KT 29/18 A3006 RMK A01 T02940183  RH  051%=      5-min Rain = 0
KVP1 112005Z 18014G21KT 29/18 A3006 RMK A01 T02940182  RH  051%=      5-min Rain = 0
KVP1 112006Z 16014KT 29/18 A3006 RMK A01 T02940184  RH  051%=      5-min Rain = 0
KVP1 112007Z 18017KT 30/18 A3006 RMK A01 T02970183  RH  050%=      5-min Rain = 0
KVP1 112008Z 19016KT 30/18 A3006 RMK A01 T02970182  RH  050%=      5-min Rain = 0
KVP1 112009Z 19013KT 30/18 A3006 RMK A01 T02970181  RH  050%=      5-min Rain = 0
KVP1 112010Z 18013KT 30/18 A3006 RMK A01 T03000184  RH  050%=      5-min Rain = 0
KVP1 112011Z 16019KT 31/18 A3006 RMK A01 T03060184  RH  048%=      5-min Rain = 0
KVP1 112012Z 16013G18KT 31/18 A3006 RMK A01 T03060183  RH  048%=      5-min Rain = 0
KVP1 112013Z 16015KT 31/18 A3006 RMK A01 T03050184  RH  048%=      5-min Rain = 0
KVP1 112014Z 19016KT 31/18 A3006 RMK A01 T03050184  RH  048%=      5-min Rain = 0
KVP1 112015Z 18015G21KT 30/18 A3006 RMK A01 T03020183  RH  049%=      5-min Rain = 0
KVP1 112016Z 18014G20KT 30/18 A3006 RMK A01 T03010184  RH  049%=      5-min Rain = 0
KVP1 112017Z 18016KT 31/19 A3006 RMK A01 T03060185  RH  048%=      5-min Rain = 0
KVP1 112018Z 17013KT 31/18 A3005 RMK A01 T03080184  RH  047%=      5-min Rain = 0
KVP1 112019Z 18011KT 31/19 A3005 RMK A01 T03050185  RH  049%=      5-min Rain = 0
KVP1 112020Z 18015KT 31/18 A3005 RMK A01 T03050184  RH  048%=      5-min Rain = 0
KVP1 112021Z 17017KT 30/18 A3005 RMK A01 T03020183  RH  049%=      5-min Rain = 0
KVP1 112022Z 17018KT 30/18 A3005 RMK A01 T03000181  RH  049%=      5-min Rain = 0
KVP1 112023Z 16016G21KT 30/18 A3005 RMK A01 T02980182  RH  050%=      5-min Rain = 0
KVP1 112024Z 16016KT 30/19 A3005 RMK A01 T03000185  RH  050%=      5-min Rain = 0
KVP1 112025Z 17018KT 31/18 A3005 RMK A01 T03050184  RH  049%=      5-min Rain = 0
KVP1 112026Z 17016KT 30/18 A3005 RMK A01 T03010183  RH  049%=      5-min Rain = 0
KVP1 112027Z 17013KT 30/18 A3005 RMK A01 T02990183  RH  050%=      5-min Rain = 0
KVP1 112028Z 16017KT 30/18 A3005 RMK A01 T03010184  RH  049%=      5-min Rain = 0
KVP1 112029Z 18018KT 31/19 A3005 RMK A01 T03050185  RH  049%=      5-min Rain = 0
KVP1 112030Z 19018KT 31/18 A3004 RMK A01 T03070183  RH  048%=      5-min Rain = 0
KVP1 112031Z 18017KT 30/18 A3004 RMK A01 T03040184  RH  049%=      5-min Rain = 0
KVP1 112032Z 16018KT 30/19 A3004 RMK A01 T03020185  RH  049%=      5-min Rain = 0
KVP1 112033Z 16019G24KT 30/19 A3004 RMK A01 T03020185  RH  049%=      5-min Rain = 0
KVP1 112034Z 17017G23KT 30/18 A3004 RMK A01 T03000183  RH  049%=      5-min Rain = 0
KVP1 112035Z 17014KT 30/18 A3004 RMK A01 T02950181  RH  050%=      5-min Rain = 0
KVP1 112036Z 17014G24KT 29/18 A3004 RMK A01 T02920182  RH  052%=      5-min Rain = 0
KVP1 112037Z 16016G22KT 29/18 A3004 RMK A01 T02920183  RH  052%=      5-min Rain = 0
KVP1 112038Z 17015KT 29/18 A3004 RMK A01 T02940183  RH  051%=      5-min Rain = 0
KVP1 112039Z 17016KT 30/18 A3004 RMK A01 T03010184  RH  050%=      5-min Rain = 0
KVP1 112040Z 17013KT 30/18 A3004 RMK A01 T03040183  RH  048%=      5-min Rain = 0
KVP1 112041Z 17012G17KT 30/18 A3004 RMK A01 T03030184  RH  049%=      5-min Rain = 0
KVP1 112042Z 18014KT 31/19 A3004 RMK A01 T03080185  RH  048%=      5-min Rain = 0
KVP1 112043Z 18014KT 31/18 A3004 RMK A01 T03120184  RH  047%=      5-min Rain = 0
KVP1 112044Z 19016G21KT 31/18 A3004 RMK A01 T03120183  RH  046%=      5-min Rain = 0
KVP1 112045Z 18016KT 31/18 A3004 RMK A01 T03090181  RH  047%=      5-min Rain = 0
KVP1 112046Z 18017G22KT 31/18 A3004 RMK A01 T03050182  RH  048%=      5-min Rain = 0
KVP1 112047Z 18019KT 31/18 A3004 RMK A01 T03050182  RH  048%=      5-min Rain = 0
KVP1 112048Z 16016KT 30/18 A3004 RMK A01 T03040184  RH  049%=      5-min Rain = 0
KVP1 112049Z 16014G19KT 30/18 A3003 RMK A01 T03040184  RH  049%=      5-min Rain = 0
KVP1 112050Z 16015KT 31/19 A3003 RMK A01 T03060185  RH  049%=      5-min Rain = 0
KVP1 112051Z 16016KT 31/18 A3003 RMK A01 T03070184  RH  048%=      5-min Rain = 0
KVP1 112052Z 17016KT 31/18 A3003 RMK A01 T03080184  RH  048%=      5-min Rain = 0
KVP1 112053Z 16013KT 31/18 A3003 RMK A01 T03060184  RH  048%=      5-min Rain = 0
KVP1 112054Z 18018KT 30/19 A3003 RMK A01 T03040185  RH  049%=      5-min Rain = 0
KVP1 112055Z 19017KT 31/18 A3003 RMK A01 T03070184  RH  048%=      5-min Rain = 0
KVP1 112056Z 17015KT 31/19 A3003 RMK A01 T03070185  RH  048%=      5-min Rain = 0
KVP1 112057Z 18017KT 31/18 A3003 RMK A01 T03050183  RH  048%=      5-min Rain = 0
KVP1 112058Z 18014KT 30/18 A3003 RMK A01 T03000183  RH  049%=      5-min Rain = 0
KVP1 112059Z 17012KT 30/19 A3003 RMK A01 T03010185  RH  050%=      5-min Rain = 0
KVP1 112100Z 16014G20KT 31/19 A3003 RMK A01 T03060187  RH  049%=      5-min Rain = 0
KVP1 112101Z 18019KT 31/19 A3003 RMK A01 T03100185  RH  047%=      5-min Rain = 0
KVP1 112102Z 18016KT 31/18 A3003 RMK A01 T03080183  RH  047%=      5-min Rain = 0
KVP1 112103Z 17015KT 31/18 A3003 RMK A01 T03070184  RH  048%=      5-min Rain = 0
KVP1 112104Z 16016KT 31/18 A3003 RMK A01 T03070183  RH  048%=      5-min Rain = 0
KVP1 112105Z 16017KT 31/18 A3003 RMK A01 T03050184  RH  048%=      5-min Rain = 0
KVP1 112106Z 16015KT 30/18 A3003 RMK A01 T03040184  RH  049%=      5-min Rain = 0
KVP1 112107Z 16012KT 31/19 A3002 RMK A01 T03050185  RH  049%=      5-min Rain = 0
KVP1 112108Z 16017KT 31/19 A3003 RMK A01 T03070186  RH  048%=      5-min Rain = 0
KVP1 112109Z 16016G21KT 31/18 A3003 RMK A01 T03090184  RH  047%=      5-min Rain = 0
KVP1 112110Z 15016G23KT 31/18 A3002 RMK A01 T03060184  RH  048%=      5-min Rain = 0
KVP1 112111Z 17017G24KT 31/18 A3003 RMK A01 T03060183  RH  048%=      5-min Rain = 0
KVP1 112112Z 18014KT 31/18 A3003 RMK A01 T03080183  RH  047%=      5-min Rain = 0
KVP1 112113Z 17014KT 31/18 A3003 RMK A01 T03080184  RH  047%=      5-min Rain = 0
KVP1 112114Z 17013KT 31/18 A3003 RMK A01 T03090184  RH  047%=      5-min Rain = 0
KVP1 112115Z 18013KT 31/18 A3003 RMK A01 T03110183  RH  047%=      5-min Rain = 0
KVP1 112116Z 17019KT 31/18 A3002 RMK A01 T03090183  RH  047%=      5-min Rain = 0
KVP1 112117Z 17016KT 31/18 A3002 RMK A01 T03060184  RH  048%=      5-min Rain = 0
KVP1 112118Z 17015KT 31/18 A3002 RMK A01 T03060183  RH  048%=      5-min Rain = 0
KVP1 112119Z 16013KT 31/18 A3002 RMK A01 T03050184  RH  048%=      5-min Rain = 0
KVP1 112120Z 15014KT 30/18 A3002 RMK A01 T03040184  RH  049%=      5-min Rain = 0
KVP1 112121Z 17014KT 30/18 A3002 RMK A01 T03040184  RH  049%=      5-min Rain = 0
KVP1 112122Z 17015G20KT 30/18 A3002 RMK A01 T03040183  RH  048%=      5-min Rain = 0
KVP1 112123Z 18017KT 30/18 A3002 RMK A01 T03040179  RH  047%=      5-min Rain = 0
KVP1 112124Z 19014KT 30/18 A3002 RMK A01 T03000179  RH  048%=      5-min Rain = 0
KVP1 112125Z 19016KT 30/18 A3002 RMK A01 T02980179  RH  049%=      5-min Rain = 0
KVP1 112126Z 19015KT 30/18 A3002 RMK A01 T02980179  RH  049%=      5-min Rain = 0
KVP1 112127Z 19013KT 30/18 A3002 RMK A01 T02980179  RH  049%=      5-min Rain = 0
KVP1 112128Z 19012KT 30/18 A3002 RMK A01 T03000181  RH  049%=      5-min Rain = 0
KVP1 112129Z 18016G23KT 30/18 A3002 RMK A01 T03040182  RH  048%=      5-min Rain = 0
KVP1 112130Z 18017KT 31/18 A3002 RMK A01 T03060182  RH  048%=      5-min Rain = 0
KVP1 112131Z 18013KT 31/18 A3002 RMK A01 T03060184  RH  048%=      5-min Rain = 0
KVP1 112132Z 18013KT 31/18 A3002 RMK A01 T03070184  RH  048%=      5-min Rain = 0
KVP1 112133Z 17014KT 31/18 A3002 RMK A01 T03090183  RH  047%=      5-min Rain = 0
KVP1 112134Z 16015KT 31/19 A3002 RMK A01 T03080185  RH  048%=      5-min Rain = 0
KVP1 112135Z 16014KT 31/19 A3002 RMK A01 T03070185  RH  048%=      5-min Rain = 0
KVP1 112136Z 17016KT 31/18 A3002 RMK A01 T03050183  RH  048%=      5-min Rain = 0
KVP1 112137Z 18014KT 30/18 A3002 RMK A01 T03020183  RH  049%=      5-min Rain = 0
KVP1 112138Z 16014KT 30/18 A3002 RMK A01 T02990182  RH  050%=      5-min Rain = 0
KVP1 112139Z 17014G19KT 30/18 A3002 RMK A01 T02980183  RH  050%=      5-min Rain = 0
KVP1 112140Z 18018KT 30/18 A3002 RMK A01 T02990183  RH  050%=      5-min Rain = 0
KVP1 112141Z 18017KT 30/18 A3002 RMK A01 T02990182  RH  050%=      5-min Rain = 0
KVP1 112142Z 16014G20KT 30/18 A3002 RMK A01 T02960183  RH  051%=      5-min Rain = 0
KVP1 112143Z 16014KT 29/18 A3002 RMK A01 T02940183  RH  051%=      5-min Rain = 0
KVP1 112144Z 17015KT 29/18 A3002 RMK A01 T02930183  RH  051%=      5-min Rain = 0
KVP1 112145Z 16013KT 29/18 A3002 RMK A01 T02930182  RH  051%=      5-min Rain = 0
KVP1 112146Z 17013G19KT 29/18 A3002 RMK A01 T02930181  RH  051%=      5-min Rain = 0
KVP1 112147Z 17015KT 30/18 A3002 RMK A01 T02950182  RH  051%=      5-min Rain = 0
KVP1 112148Z 19012KT 30/18 A3002 RMK A01 T02960183  RH  050%=      5-min Rain = 0
KVP1 112149Z 17012KT 30/18 A3002 RMK A01 T02970182  RH  050%=      5-min Rain = 0
KVP1 112150Z 17011KT 30/18 A3002 RMK A01 T02980182  RH  050%=      5-min Rain = 0
KVP1 112151Z 18011KT 30/18 A3002 RMK A01 T02990182  RH  049%=      5-min Rain = 0
KVP1 112152Z 16014KT 30/18 A3002 RMK A01 T02990182  RH  050%=      5-min Rain = 0
KVP1 112153Z 16014KT 30/18 A3001 RMK A01 T02990183  RH  050%=      5-min Rain = 0
KVP1 112154Z 15015KT 30/18 A3002 RMK A01 T02980183  RH  050%=      5-min Rain = 0
KVP1 112155Z 16014KT 30/18 A3002 RMK A01 T02980183  RH  050%=      5-min Rain = 0
KVP1 112156Z 16017KT 30/18 A3002 RMK A01 T02990184  RH  050%=      5-min Rain = 0
KVP1 112157Z 15018KT 30/18 A3001 RMK A01 T03000183  RH  050%=      5-min Rain = 0
KVP1 112158Z 16017KT 30/18 A3002 RMK A01 T02980183  RH  050%=      5-min Rain = 0
KVP1 112159Z 17014KT 30/18 A3002 RMK A01 T02980183  RH  050%=      5-min Rain = 0
KVP1 112200Z 17014KT 30/18 A3001 RMK A01 T02980182  RH  050%=      5-min Rain = 0
KVP1 112201Z 18016KT 30/18 A3002 RMK A01 T02980182  RH  050%=      5-min Rain = 0
KVP1 112202Z 19016G21KT 30/18 A3002 RMK A01 T02990182  RH  049%=      5-min Rain = 0
KVP1 112203Z 18017KT 30/18 A3002 RMK A01 T02990182  RH  049%=      5-min Rain = 0
KVP1 112204Z 18013KT 30/18 A3002 RMK A01 T02980181  RH  049%=      5-min Rain = 0
KVP1 112205Z 17016KT 30/18 A3002 RMK A01 T02980180  RH  049%=      5-min Rain = 0
KVP1 112206Z 17013KT 30/18 A3002 RMK A01 T02980180  RH  049%=      5-min Rain = 0
KVP1 112207Z 17013KT 30/18 A3002 RMK A01 T02970181  RH  050%=      5-min Rain = 0
KVP1 112208Z 18015KT 30/18 A3002 RMK A01 T02970182  RH  050%=      5-min Rain = 0
KVP1 112209Z 17019KT 30/18 A3002 RMK A01 T02970182  RH  050%=      5-min Rain = 0
KVP1 112210Z 17016KT 30/18 A3002 RMK A01 T02960183  RH  050%=      5-min Rain = 0
KVP1 112211Z 16017G22KT 30/18 A3002 RMK A01 T02950183  RH  051%=      5-min Rain = 0
KVP1 112212Z 16016KT 29/18 A3002 RMK A01 T02940183  RH  051%=      5-min Rain = 0
KVP1 112213Z 15015KT 29/18 A3002 RMK A01 T02930183  RH  051%=      5-min Rain = 0
KVP1 112214Z 16015G21KT 29/18 A3001 RMK A01 T02930183  RH  051%=      5-min Rain = 0
KVP1 112215Z 17016G22KT 29/18 A3001 RMK A01 T02930183  RH  051%=      5-min Rain = 0
KVP1 112216Z 17016KT 29/18 A3002 RMK A01 T02940183  RH  051%=      5-min Rain = 0
KVP1 112217Z 17016KT 29/18 A3001 RMK A01 T02940181  RH  051%=      5-min Rain = 0
KVP1 112218Z 18014KT 29/18 A3001 RMK A01 T02940182  RH  051%=      5-min Rain = 0
KVP1 112219Z 18018G24KT 29/18 A3001 RMK A01 T02940182  RH  051%=      5-min Rain = 0
KVP1 112220Z 18016KT 29/18 A3001 RMK A01 T02940182  RH  051%=      5-min Rain = 0
KVP1 112221Z 17014KT 29/18 A3001 RMK A01 T02940183  RH  051%=      5-min Rain = 0
KVP1 112222Z 16017KT 30/18 A3001 RMK A01 T02950182  RH  051%=      5-min Rain = 0
KVP1 112223Z 15018KT 30/18 A3001 RMK A01 T02950182  RH  051%=      5-min Rain = 0
KVP1 112224Z 16019KT 29/18 A3001 RMK A01 T02940182  RH  051%=      5-min Rain = 0
KVP1 112225Z 17015KT 29/18 A3001 RMK A01 T02930182  RH  051%=      5-min Rain = 0
KVP1 112226Z 17017KT 29/18 A3001 RMK A01 T02920182  RH  052%=      5-min Rain = 0
KVP1 112227Z 17017KT 29/18 A3001 RMK A01 T02920182  RH  052%=      5-min Rain = 0
KVP1 112228Z 17016KT 29/18 A3001 RMK A01 T02920182  RH  052%=      5-min Rain = 0
KVP1 112229Z 17017KT 29/18 A3001 RMK A01 T02920182  RH  052%=      5-min Rain = 0
KVP1 112230Z 17017KT 29/18 A3001 RMK A01 T02920183  RH  052%=      5-min Rain = 0
KVP1 112231Z 17018KT 29/18 A3001 RMK A01 T02920182  RH  052%=      5-min Rain = 0
KVP1 112232Z 17016KT 29/18 A3001 RMK A01 T02910182  RH  052%=      5-min Rain = 0
KVP1 112233Z 18017KT 29/18 A3001 RMK A01 T02910182  RH  052%=      5-min Rain = 0
KVP1 112234Z 17014KT 29/18 A3001 RMK A01 T02900182  RH  052%=      5-min Rain = 0
KVP1 112235Z 16016KT 29/18 A3001 RMK A01 T02900182  RH  052%=      5-min Rain = 0
KVP1 112236Z 16017KT 29/18 A3001 RMK A01 T02900182  RH  052%=      5-min Rain = 0
KVP1 112237Z 16017KT 29/18 A3001 RMK A01 T02900182  RH  052%=      5-min Rain = 0
KVP1 112238Z 16015KT 29/18 A3001 RMK A01 T02890182  RH  052%=      5-min Rain = 0
KVP1 112239Z 16013KT 29/18 A3001 RMK A01 T02890182  RH  052%=      5-min Rain = 0
KVP1 112240Z 15012G18KT 29/18 A3001 RMK A01 T02900182  RH  052%=      5-min Rain = 0
KVP1 112241Z 16014G20KT 29/18 A3001 RMK A01 T02900182  RH  052%=      5-min Rain = 0
KVP1 112242Z 17017KT 29/18 A30 RMK A01 T02900182  RH  052%=      5-min Rain = 0
KVP1 112243Z 17015KT 29/18 A30 RMK A01 T02900181  RH  052%=      5-min Rain = 0
KVP1 112244Z 16016KT 29/18 A30 RMK A01 T02900181  RH  052%=      5-min Rain = 0
KVP1 112245Z 16015G20KT 29/18 A30 RMK A01 T02890181  RH  052%=      5-min Rain = 0
KVP1 112246Z 16016KT 29/18 A30 RMK A01 T02890181  RH  052%=      5-min Rain = 0
KVP1 112247Z 16015KT 29/18 A30 RMK A01 T02890181  RH  052%=      5-min Rain = 0
KVP1 112248Z 16015KT 29/18 A30 RMK A01 T02890182  RH  052%=      5-min Rain = 0
KVP1 112249Z 16016KT 29/18 A30 RMK A01 T02890182  RH  052%=      5-min Rain = 0
KVP1 112250Z 17015KT 29/18 A30 RMK A01 T02890182  RH  052%=      5-min Rain = 0
KVP1 112251Z 18015KT 29/18 A30 RMK A01 T02890182  RH  052%=      5-min Rain = 0
KVP1 112252Z 18015KT 29/18 A30 RMK A01 T02890182  RH  052%=      5-min Rain = 0
KVP1 112253Z 16014KT 29/18 A30 RMK A01 T02890181  RH  052%=      5-min Rain = 0
KVP1 112254Z 16013KT 29/18 A30 RMK A01 T02890182  RH  052%=      5-min Rain = 0
KVP1 112255Z 16016KT 29/18 A30 RMK A01 T02890182  RH  052%=      5-min Rain = 0
KVP1 112256Z 16015KT 29/18 A30 RMK A01 T02890181  RH  052%=      5-min Rain = 0
KVP1 112257Z 17013KT 29/18 A30 RMK A01 T02880181  RH  052%=      5-min Rain = 0
KVP1 112258Z 17014KT 29/18 A30 RMK A01 T02880181  RH  052%=      5-min Rain = 0
KVP1 112259Z 16012G17KT 29/18 A30 RMK A01 T02880180  RH  052%=      5-min Rain = 0
KVP1 112300Z 16016KT 29/18 A30 RMK A01 T02880181  RH  052%=      5-min Rain = 0
KVP1 112301Z 16015KT 29/18 A30 RMK A01 T02890181  RH  052%=      5-min Rain = 0
KVP1 112302Z 16015KT 29/18 A30 RMK A01 T02890181  RH  052%=      5-min Rain = 0
KVP1 112303Z 16011KT 29/18 A3001 RMK A01 T02890181  RH  052%=      5-min Rain = 0
KVP1 112304Z 17012KT 29/18 A3001 RMK A01 T02890182  RH  052%=      5-min Rain = 0
KVP1 112305Z 17015KT 29/18 A3001 RMK A01 T02890181  RH  052%=      5-min Rain = 0
KVP1 112306Z 17016KT 29/18 A3001 RMK A01 T02890180  RH  052%=      5-min Rain = 0
KVP1 112307Z 17016KT 29/18 A3001 RMK A01 T02890180  RH  052%=      5-min Rain = 0
KVP1 112308Z 16016KT 29/18 A3001 RMK A01 T02890181  RH  052%=      5-min Rain = 0
KVP1 112309Z 16014KT 29/18 A3001 RMK A01 T02890181  RH  052%=      5-min Rain = 0
KVP1 112310Z 17015KT 29/18 A3001 RMK A01 T02880180  RH  052%=      5-min Rain = 0
KVP1 112311Z 16016KT 29/18 A3001 RMK A01 T02890180  RH  052%=      5-min Rain = 0
KVP1 112312Z 17014KT 29/18 A3001 RMK A01 T02890180  RH  052%=      5-min Rain = 0
KVP1 112313Z 17017KT 29/18 A3001 RMK A01 T02890180  RH  052%=      5-min Rain = 0
KVP1 112314Z 16018KT 29/18 A3001 RMK A01 T02890180  RH  052%=      5-min Rain = 0
KVP1 112315Z 17017KT 29/18 A3001 RMK A01 T02890181  RH  052%=      5-min Rain = 0
KVP1 112316Z 17016KT 29/18 A3001 RMK A01 T02890181  RH  052%=      5-min Rain = 0
KVP1 112317Z 17018KT 29/18 A3001 RMK A01 T02890181  RH  052%=      5-min Rain = 0
KVP1 112318Z 17018KT 29/18 A3001 RMK A01 T02890181  RH  052%=      5-min Rain = 0
KVP1 112319Z 16017KT 29/18 A3001 RMK A01 T02890181  RH  052%=      5-min Rain = 0
KVP1 112320Z 17018KT 29/18 A3001 RMK A01 T02890181  RH  052%=      5-min Rain = 0
KVP1 112321Z 17016KT 29/18 A3001 RMK A01 T02890181  RH  052%=      5-min Rain = 0
KVP1 112322Z 17015KT 29/18 A3001 RMK A01 T02890180  RH  052%=      5-min Rain = 0
KVP1 112323Z 16013G18KT 29/18 A3001 RMK A01 T02900181  RH  052%=      5-min Rain = 0
KVP1 112324Z 17014KT 29/18 A3001 RMK A01 T02910182  RH  052%=      5-min Rain = 0
KVP1 112325Z 17016KT 29/18 A3001 RMK A01 T02920182  RH  051%=      5-min Rain = 0
KVP1 112326Z 18015KT 29/18 A3001 RMK A01 T02920181  RH  051%=      5-min Rain = 0
KVP1 112327Z 17016KT 29/18 A3001 RMK A01 T02920181  RH  051%=      5-min Rain = 0
KVP1 112328Z 17014KT 29/18 A3001 RMK A01 T02920181  RH  051%=      5-min Rain = 0
KVP1 112329Z 16014KT 29/18 A3001 RMK A01 T02920181  RH  051%=      5-min Rain = 0
KVP1 112330Z 17012G18KT 29/18 A3001 RMK A01 T02910181  RH  051%=      5-min Rain = 0
KVP1 112331Z 17015KT 29/18 A3001 RMK A01 T02910182  RH  052%=      5-min Rain = 0
KVP1 112332Z 17015KT 29/18 A3001 RMK A01 T02910181  RH  052%=      5-min Rain = 0
KVP1 112333Z 18016KT 29/18 A3001 RMK A01 T02900182  RH  052%=      5-min Rain = 0
KVP1 112334Z 17017G22KT 29/18 A3001 RMK A01 T02900182  RH  052%=      5-min Rain = 0
KVP1 112335Z 17017G22KT 29/18 A3001 RMK A01 T02900182  RH  052%=      5-min Rain = 0
KVP1 112336Z 17017KT 29/18 A3001 RMK A01 T02890182  RH  052%=      5-min Rain = 0
KVP1 112337Z 17015KT 29/18 A3001 RMK A01 T02890182  RH  052%=      5-min Rain = 0
KVP1 112338Z 17015KT 29/18 A3001 RMK A01 T02880182  RH  053%=      5-min Rain = 0
KVP1 112339Z 17013KT 29/18 A3001 RMK A01 T02890183  RH  053%=      5-min Rain = 0
KVP1 112340Z 17014KT 29/18 A3001 RMK A01 T02890182  RH  053%=      5-min Rain = 0
KVP1 112341Z 17013KT 29/18 A3001 RMK A01 T02880182  RH  053%=      5-min Rain = 0
KVP1 112342Z 17014KT 29/18 A3001 RMK A01 T02880181  RH  053%=      5-min Rain = 0
KVP1 112343Z 16015KT 29/18 A3001 RMK A01 T02870181  RH  053%=      5-min Rain = 0
KVP1 112344Z 17015KT 29/18 A3001 RMK A01 T02870181  RH  053%=      5-min Rain = 0
KVP1 112345Z 17017KT 29/18 A3001 RMK A01 T02860181  RH  053%=      5-min Rain = 0
KVP1 112346Z 16017KT 29/18 A3001 RMK A01 T02860181  RH  053%=      5-min Rain = 0
KVP1 112347Z 16015KT 29/18 A3001 RMK A01 T02850181  RH  053%=      5-min Rain = 0
KVP1 112348Z 16017KT 29/18 A3001 RMK A01 T02850180  RH  053%=      5-min Rain = 0
KVP1 112349Z 16015KT 29/18 A3001 RMK A01 T02850180  RH  053%=      5-min Rain = 0
KVP1 112350Z 17014KT 28/18 A3001 RMK A01 T02840181  RH  053%=      5-min Rain = 0
KVP1 112351Z 16014KT 28/18 A3001 RMK A01 T02840180  RH  053%=      5-min Rain = 0
KVP1 112352Z 16013KT 28/18 A3001 RMK A01 T02840180  RH  053%=      5-min Rain = 0
KVP1 112353Z 17013KT 28/18 A3001 RMK A01 T02840180  RH  053%=      5-min Rain = 0
KVP1 112354Z 17013KT 28/18 A3001 RMK A01 T02840180  RH  053%=      5-min Rain = 0
KVP1 112355Z 16013KT 28/18 A3001 RMK A01 T02840180  RH  053%=      5-min Rain = 0
KVP1 112356Z 16015KT 28/18 A3001 RMK A01 T02840180  RH  053%=      5-min Rain = 0
KVP1 112357Z 16014KT 28/18 A3001 RMK A01 T02840180  RH  053%=      5-min Rain = 0
KVP1 112358Z 16015KT 28/18 A3001 RMK A01 T02830180  RH  053%=      5-min Rain = 0
KVP1 112359Z 16015KT 28/18 A3001 RMK A01 T02830179  RH  054%=      5-min Rain = 0
KVP1 120000Z 17015KT 28/18 A3001 RMK A01 T02830180  RH  054%=      5-min Rain = 0
KVP1 120001Z 17012KT 28/18 A3001 RMK A01 T02830179  RH  054%=      5-min Rain = 0
KVP1 120002Z 16013KT 28/18 A3001 RMK A01 T02830180  RH  054%=      5-min Rain = 0
KVP1 120003Z 16013KT 28/18 A3001 RMK A01 T02820180  RH  054%=      5-min Rain = 0
KVP1 120004Z 16012KT 28/18 A3001 RMK A01 T02820179  RH  054%=      5-min Rain = 0
KVP1 120005Z 16014KT 28/18 A3001 RMK A01 T02820180  RH  054%=      5-min Rain = 0
KVP1 120006Z 16012KT 28/18 A3001 RMK A01 T02810179  RH  054%=      5-min Rain = 0
KVP1 120007Z 16012KT 28/18 A3001 RMK A01 T02810179  RH  054%=      5-min Rain = 0
KVP1 120008Z 16011KT 28/18 A3001 RMK A01 T02810179  RH  054%=      5-min Rain = 0
KVP1 120009Z 16012KT 28/18 A3002 RMK A01 T02810179  RH  054%=      5-min Rain = 0
KVP1 120010Z 16013KT 28/18 A3002 RMK A01 T02800179  RH  054%=      5-min Rain = 0
KVP1 120011Z 17015KT 28/18 A3002 RMK A01 T02800179  RH  054%=      5-min Rain = 0
KVP1 120012Z 16014KT 28/18 A3002 RMK A01 T02810179  RH  054%=      5-min Rain = 0
KVP1 120013Z 16012KT 28/18 A3002 RMK A01 T02800179  RH  054%=      5-min Rain = 0
KVP1 120014Z 16012KT 28/18 A3002 RMK A01 T02800179  RH  054%=      5-min Rain = 0
KVP1 120015Z 16010KT 28/18 A3002 RMK A01 T02800179  RH  054%=      5-min Rain = 0
KVP1 120016Z 16012KT 28/18 A3002 RMK A01 T02800179  RH  054%=      5-min Rain = 0
KVP1 120017Z 16010KT 28/18 A3002 RMK A01 T02800179  RH  054%=      5-min Rain = 0
KVP1 120018Z 16010KT 28/18 A3002 RMK A01 T02800179  RH  054%=      5-min Rain = 0
KVP1 120019Z 16009KT 28/18 A3002 RMK A01 T02790179  RH  055%=      5-min Rain = 0
KVP1 120020Z 16010KT 28/18 A3002 RMK A01 T02790179  RH  055%=      5-min Rain = 0
KVP1 120021Z 17010KT 28/18 A3002 RMK A01 T02790179  RH  055%=      5-min Rain = 0
KVP1 120022Z 16011KT 28/18 A3002 RMK A01 T02780179  RH  055%=      5-min Rain = 0
KVP1 120023Z 16015KT 28/18 A3002 RMK A01 T02780178  RH  055%=      5-min Rain = 0
KVP1 120024Z 17015KT 28/18 A3002 RMK A01 T02790178  RH  054%=      5-min Rain = 0
KVP1 120025Z 17015KT 28/18 A3002 RMK A01 T02800178  RH  054%=      5-min Rain = 0
KVP1 120026Z 16015KT 28/18 A3002 RMK A01 T02800178  RH  054%=      5-min Rain = 0
KVP1 120027Z 17013KT 28/18 A3002 RMK A01 T02800178  RH  054%=      5-min Rain = 0
KVP1 120028Z 16014KT 28/18 A3002 RMK A01 T02800179  RH  054%=      5-min Rain = 0
KVP1 120029Z 17015KT 28/18 A3002 RMK A01 T02790178  RH  054%=      5-min Rain = 0
KVP1 120030Z 17013KT 28/18 A3002 RMK A01 T02790178  RH  054%=      5-min Rain = 0
KVP1 120031Z 16014KT 28/18 A3002 RMK A01 T02790178  RH  054%=      5-min Rain = 0
KVP1 120032Z 16012KT 28/18 A3002 RMK A01 T02790178  RH  054%=      5-min Rain = 0
KVP1 120033Z 16013KT 28/18 A3002 RMK A01 T02790178  RH  054%=      5-min Rain = 0
KVP1 120034Z 17014KT 28/18 A3002 RMK A01 T02780178  RH  054%=      5-min Rain = 0
KVP1 120035Z 17014KT 28/18 A3002 RMK A01 T02780178  RH  054%=      5-min Rain = 0
KVP1 120036Z 17013KT 28/18 A3002 RMK A01 T02780178  RH  054%=      5-min Rain = 0
KVP1 120037Z 17012KT 28/18 A3002 RMK A01 T02780178  RH  054%=      5-min Rain = 0
KVP1 120038Z 17011KT 28/18 A3002 RMK A01 T02780178  RH  054%=      5-min Rain = 0
KVP1 120039Z 16014KT 28/18 A3002 RMK A01 T02780178  RH  054%=      5-min Rain = 0
KVP1 120040Z 17013KT 28/18 A3002 RMK A01 T02780177  RH  054%=      5-min Rain = 0
KVP1 120041Z 16010KT 28/18 A3002 RMK A01 T02780178  RH  054%=      5-min Rain = 0
KVP1 120042Z 16012KT 28/18 A3002 RMK A01 T02770178  RH  055%=      5-min Rain = 0
KVP1 120043Z 16011KT 28/18 A3002 RMK A01 T02770178  RH  055%=      5-min Rain = 0
KVP1 120044Z 16012KT 28/18 A3002 RMK A01 T02770178  RH  055%=      5-min Rain = 0
KVP1 120045Z 16014KT 28/18 A3002 RMK A01 T02770177  RH  055%=      5-min Rain = 0
KVP1 120046Z 17012KT 28/18 A3002 RMK A01 T02770177  RH  055%=      5-min Rain = 0
KVP1 120047Z 16010KT 28/18 A3002 RMK A01 T02770177  RH  055%=      5-min Rain = 0
KVP1 120048Z 16013KT 28/18 A3002 RMK A01 T02770178  RH  055%=      5-min Rain = 0
KVP1 120049Z 17011KT 28/18 A3001 RMK A01 T02760177  RH  055%=      5-min Rain = 0
KVP1 120050Z 17014KT 28/18 A3001 RMK A01 T02760178  RH  055%=      5-min Rain = 0
KVP1 120051Z 17012KT 28/18 A3001 RMK A01 T02760177  RH  055%=      5-min Rain = 0
KVP1 120052Z 17012KT 28/18 A3002 RMK A01 T02760177  RH  055%=      5-min Rain = 0
KVP1 120053Z 17011KT 28/18 A3002 RMK A01 T02760177  RH  055%=      5-min Rain = 0
KVP1 120054Z 17012KT 28/18 A3002 RMK A01 T02760177  RH  055%=      5-min Rain = 0
KVP1 120055Z 17013KT 28/18 A3002 RMK A01 T02760178  RH  055%=      5-min Rain = 0
KVP1 120056Z 17013KT 28/18 A3002 RMK A01 T02760177  RH  055%=      5-min Rain = 0
KVP1 120057Z 17010KT 28/18 A3002 RMK A01 T02760177  RH  055%=      5-min Rain = 0
KVP1 120058Z 16012KT 28/18 A3002 RMK A01 T02760177  RH  055%=      5-min Rain = 0
KVP1 120059Z 17013KT 28/18 A3002 RMK A01 T02760178  RH  055%=      5-min Rain = 0
KVP1 120100Z 17013KT 28/18 A3002 RMK A01 T02760177  RH  055%=      5-min Rain = 0
KVP1 120101Z 17015KT 28/18 A3002 RMK A01 T02760177  RH  055%=      5-min Rain = 0
KVP1 120102Z 17011KT 28/18 A3002 RMK A01 T02760177  RH  055%=      5-min Rain = 0
KVP1 120103Z 17013KT 28/18 A3002 RMK A01 T02760177  RH  055%=      5-min Rain = 0
KVP1 120104Z 16014KT 28/18 A3002 RMK A01 T02760177  RH  055%=      5-min Rain = 0
KVP1 120105Z 17012KT 28/18 A3002 RMK A01 T02760177  RH  055%=      5-min Rain = 0
KVP1 120106Z 16012KT 28/18 A3002 RMK A01 T02750177  RH  055%=      5-min Rain = 0
KVP1 120107Z 16010KT 27/18 A3002 RMK A01 T02740177  RH  055%=      5-min Rain = 0
KVP1 120108Z 16012G17KT 27/18 A3002 RMK A01 T02740177  RH  055%=      5-min Rain = 0
KVP1 120109Z 17014KT 27/18 A3002 RMK A01 T02730177  RH  056%=      5-min Rain = 0
KVP1 120110Z 17013KT 27/18 A3002 RMK A01 T02730176  RH  055%=      5-min Rain = 0
KVP1 120111Z 17012KT 27/18 A3002 RMK A01 T02730176  RH  055%=      5-min Rain = 0
KVP1 120112Z 17013KT 27/18 A3002 RMK A01 T02730177  RH  055%=      5-min Rain = 0
KVP1 120113Z 17017KT 27/18 A3002 RMK A01 T02730177  RH  056%=      5-min Rain = 0
KVP1 120114Z 17017KT 27/18 A3002 RMK A01 T02730179  RH  056%=      5-min Rain = 0
KVP1 120115Z 18017KT 27/18 A3002 RMK A01 T02730182  RH  058%=      5-min Rain = 0
KVP1 120116Z 17016KT 27/18 A3002 RMK A01 T02720184  RH  059%=      5-min Rain = 0
KVP1 120117Z 18018KT 27/19 A3002 RMK A01 T02700186  RH  060%=      5-min Rain = 0
KVP1 120118Z 17016KT 27/19 A3002 RMK A01 T02690187  RH  061%=      5-min Rain = 0
KVP1 120119Z 18018KT 27/19 A3002 RMK A01 T02670188  RH  062%=      5-min Rain = 0
KVP1 120120Z 17017KT 27/19 A3002 RMK A01 T02660188  RH  062%=      5-min Rain = 0
KVP1 120121Z 17020KT 27/19 A3002 RMK A01 T02660189  RH  062%=      5-min Rain = 0
KVP1 120122Z 17018KT 27/19 A3003 RMK A01 T02650189  RH  063%=      5-min Rain = 0
KVP1 120123Z 18020KT 27/19 A3003 RMK A01 T02650189  RH  063%=      5-min Rain = 0
KVP1 120124Z 18015KT 26/19 A3003 RMK A01 T02640189  RH  063%=      5-min Rain = 0
KVP1 120125Z 18016KT 26/19 A3003 RMK A01 T02640189  RH  064%=      5-min Rain = 0
KVP1 120126Z 18017KT 26/19 A3003 RMK A01 T02630189  RH  064%=      5-min Rain = 0
KVP1 120127Z 18015KT 26/19 A3003 RMK A01 T02630189  RH  064%=      5-min Rain = 0
KVP1 120128Z 18017KT 26/19 A3003 RMK A01 T02620189  RH  064%=      5-min Rain = 0
KVP1 120129Z 18017KT 26/19 A3003 RMK A01 T02620189  RH  064%=      5-min Rain = 0
KVP1 120130Z 18016KT 26/19 A3003 RMK A01 T02620189  RH  064%=      5-min Rain = 0
KVP1 120131Z 17015G20KT 26/19 A3003 RMK A01 T02610189  RH  065%=      5-min Rain = 0
KVP1 120132Z 17018G23KT 26/19 A3003 RMK A01 T02610189  RH  065%=      5-min Rain = 0
KVP1 120133Z 18020G25KT 26/19 A3003 RMK A01 T02610189  RH  065%=      5-min Rain = 0
KVP1 120134Z 17020KT 26/19 A3003 RMK A01 T02600189  RH  065%=      5-min Rain = 0
KVP1 120135Z 17015G20KT 26/19 A3003 RMK A01 T02600190  RH  065%=      5-min Rain = 0
KVP1 120136Z 18017KT 26/19 A3003 RMK A01 T02600189  RH  065%=      5-min Rain = 0
KVP1 120137Z 18018KT 26/19 A3004 RMK A01 T02590189  RH  065%=      5-min Rain = 0
KVP1 120138Z 18016KT 26/19 A3004 RMK A01 T02590189  RH  065%=      5-min Rain = 0
KVP1 120139Z 18015KT 26/19 A3004 RMK A01 T02590189  RH  065%=      5-min Rain = 0
KVP1 120140Z 18016G21KT 26/19 A3004 RMK A01 T02590189  RH  066%=      5-min Rain = 0
KVP1 120141Z 17017KT 26/19 A3003 RMK A01 T02580189  RH  066%=      5-min Rain = 0
KVP1 120142Z 18017KT 26/19 A3003 RMK A01 T02580189  RH  066%=      5-min Rain = 0
KVP1 120143Z 17017KT 26/19 A3003 RMK A01 T02580189  RH  066%=      5-min Rain = 0
KVP1 120144Z 17016KT 26/19 A3003 RMK A01 T02570189  RH  066%=      5-min Rain = 0
KVP1 120145Z 18018KT 26/19 A3003 RMK A01 T02570190  RH  066%=      5-min Rain = 0
KVP1 120146Z 18019KT 26/19 A3004 RMK A01 T02570190  RH  066%=      5-min Rain = 0
KVP1 120147Z 17016G21KT 26/19 A3004 RMK A01 T02570191  RH  067%=      5-min Rain = 0
KVP1 120148Z 18016KT 26/19 A3004 RMK A01 T02570191  RH  067%=      5-min Rain = 0
KVP1 120149Z 17018KT 26/19 A3004 RMK A01 T02570191  RH  067%=      5-min Rain = 0
KVP1 120150Z 18017KT 26/19 A3004 RMK A01 T02560191  RH  067%=      5-min Rain = 0
KVP1 120151Z 18017KT 26/19 A3004 RMK A01 T02560191  RH  067%=      5-min Rain = 0
KVP1 120152Z 17018G24KT 26/19 A3004 RMK A01 T02560191  RH  067%=      5-min Rain = 0
KVP1 120153Z 17018G23KT 26/19 A3004 RMK A01 T02560191  RH  067%=      5-min Rain = 0
KVP1 120154Z 17016KT 26/19 A3004 RMK A01 T02560191  RH  068%=      5-min Rain = 0
KVP1 120155Z 17018KT 26/19 A3004 RMK A01 T02550191  RH  068%=      5-min Rain = 0
KVP1 120156Z 17019KT 26/19 A3004 RMK A01 T02550192  RH  068%=      5-min Rain = 0
KVP1 120157Z 17016KT 26/19 A3004 RMK A01 T02550192  RH  068%=      5-min Rain = 0
KVP1 120158Z 17016KT 26/19 A3004 RMK A01 T02560192  RH  068%=      5-min Rain = 0
KVP1 120159Z 17016KT 26/19 A3004 RMK A01 T02550191  RH  068%=      5-min Rain = 0
KVP1 120200Z 17016KT 26/19 A3004 RMK A01 T02550192  RH  068%=      5-min Rain = 0
KVP1 120201Z 17014KT 26/19 A3004 RMK A01 T02550192  RH  068%=      5-min Rain = 0
KVP1 120202Z 17013KT 26/19 A3004 RMK A01 T02550192  RH  068%=      5-min Rain = 0
KVP1 120203Z 17014KT 25/19 A3004 RMK A01 T02540191  RH  068%=      5-min Rain = 0
KVP1 120204Z 17015KT 25/19 A3004 RMK A01 T02540192  RH  068%=      5-min Rain = 0
KVP1 120205Z 17015KT 25/19 A3004 RMK A01 T02540192  RH  069%=      5-min Rain = 0
KVP1 120206Z 17016KT 25/19 A3004 RMK A01 T02540192  RH  068%=      5-min Rain = 0
KVP1 120207Z 17015KT 25/19 A3004 RMK A01 T02540192  RH  069%=      5-min Rain = 0
KVP1 120208Z 17014KT 25/19 A3004 RMK A01 T02540192  RH  069%=      5-min Rain = 0
KVP1 120209Z 17014KT 25/19 A3004 RMK A01 T02540192  RH  069%=      5-min Rain = 0
KVP1 120210Z 17014KT 25/19 A3004 RMK A01 T02530192  RH  069%=      5-min Rain = 0
KVP1 120211Z 17019KT 25/19 A3004 RMK A01 T02530192  RH  069%=      5-min Rain = 0
KVP1 120212Z 17017KT 25/19 A3004 RMK A01 T02530192  RH  069%=      5-min Rain = 0
KVP1 120213Z 17016G21KT 25/19 A3004 RMK A01 T02540192  RH  068%=      5-min Rain = 0
KVP1 120214Z 16015KT 25/19 A3004 RMK A01 T02540192  RH  068%=      5-min Rain = 0
KVP1 120215Z 16016KT 25/19 A3004 RMK A01 T02540192  RH  069%=      5-min Rain = 0
KVP1 120216Z 16016KT 25/19 A3004 RMK A01 T02530191  RH  069%=      5-min Rain = 0
KVP1 120217Z 17014G19KT 25/19 A3005 RMK A01 T02530192  RH  069%=      5-min Rain = 0
KVP1 120218Z 17017KT 25/19 A3005 RMK A01 T02520191  RH  069%=      5-min Rain = 0
KVP1 120219Z 17016KT 25/19 A3005 RMK A01 T02530192  RH  069%=      5-min Rain = 0
KVP1 120220Z 17015KT 25/19 A3005 RMK A01 T02530191  RH  069%=      5-min Rain = 0
KVP1 120221Z 17015KT 25/19 A3005 RMK A01 T02520191  RH  069%=      5-min Rain = 0
KVP1 120222Z 17016G21KT 25/19 A3005 RMK A01 T02520191  RH  069%=      5-min Rain = 0
KVP1 120223Z 17015KT 25/19 A3005 RMK A01 T02520191  RH  069%=      5-min Rain = 0
KVP1 120224Z 17015KT 25/19 A3005 RMK A01 T02520191  RH  069%=      5-min Rain = 0
KVP1 120225Z 17014KT 25/19 A3005 RMK A01 T02520191  RH  069%=      5-min Rain = 0
KVP1 120226Z 17015KT 25/19 A3005 RMK A01 T02510190  RH  069%=      5-min Rain = 0
KVP1 120227Z 17014G19KT 25/19 A3005 RMK A01 T02510190  RH  069%=      5-min Rain = 0
KVP1 120228Z 17017KT 25/19 A3005 RMK A01 T02510190  RH  069%=      5-min Rain = 0
KVP1 120229Z 17015KT 25/19 A3005 RMK A01 T02510190  RH  069%=      5-min Rain = 0
KVP1 120230Z 17013KT 25/19 A3005 RMK A01 T02500190  RH  069%=      5-min Rain = 0
KVP1 120231Z 17013KT 25/19 A3005 RMK A01 T02500190  RH  069%=      5-min Rain = 0
KVP1 120232Z 17013KT 25/19 A3005 RMK A01 T02500190  RH  069%=      5-min Rain = 0
KVP1 120233Z 17014KT 25/19 A3005 RMK A01 T02500190  RH  069%=      5-min Rain = 0
KVP1 120234Z 17015G21KT 25/19 A3005 RMK A01 T02500190  RH  069%=      5-min Rain = 0
KVP1 120235Z 17016G22KT 25/19 A3005 RMK A01 T02500190  RH  069%=      5-min Rain = 0
KVP1 120236Z 17017KT 25/19 A3005 RMK A01 T02500190  RH  069%=      5-min Rain = 0
KVP1 120237Z 17015KT 25/19 A3005 RMK A01 T02500190  RH  069%=      5-min Rain = 0
KVP1 120238Z 17014KT 25/19 A3005 RMK A01 T02500190  RH  069%=      5-min Rain = 0
KVP1 120239Z 17017KT 25/19 A3005 RMK A01 T02490190  RH  070%=      5-min Rain = 0
KVP1 120240Z 17013KT 25/19 A3005 RMK A01 T02490190  RH  070%=      5-min Rain = 0
KVP1 120241Z 17015G20KT 25/19 A3005 RMK A01 T02480190  RH  070%=      5-min Rain = 0
KVP1 120242Z 17015KT 25/19 A3005 RMK A01 T02480190  RH  070%=      5-min Rain = 0
KVP1 120243Z 17016KT 25/19 A3005 RMK A01 T02480190  RH  070%=      5-min Rain = 0
KVP1 120244Z 18015KT 25/19 A3005 RMK A01 T02480190  RH  070%=      5-min Rain = 0
KVP1 120245Z 17015KT 25/19 A3005 RMK A01 T02480190  RH  070%=      5-min Rain = 0
KVP1 120246Z 17016KT 25/19 A3005 RMK A01 T02470190  RH  070%=      5-min Rain = 0
KVP1 120247Z 17015KT 25/19 A3005 RMK A01 T02470190  RH  070%=      5-min Rain = 0
KVP1 120248Z 17016KT 25/19 A3005 RMK A01 T02470190  RH  070%=      5-min Rain = 0
KVP1 120249Z 17016KT 25/19 A3005 RMK A01 T02470190  RH  071%=      5-min Rain = 0
KVP1 120250Z 17017KT 25/19 A3005 RMK A01 T02470190  RH  071%=      5-min Rain = 0
KVP1 120251Z 17017KT 25/19 A3005 RMK A01 T02470190  RH  071%=      5-min Rain = 0
KVP1 120252Z 17016KT 25/19 A3005 RMK A01 T02470190  RH  071%=      5-min Rain = 0
KVP1 120253Z 17017KT 25/19 A3005 RMK A01 T02470190  RH  071%=      5-min Rain = 0
KVP1 120254Z 17015KT 25/19 A3005 RMK A01 T02470190  RH  071%=      5-min Rain = 0
KVP1 120255Z 17015KT 25/19 A3005 RMK A01 T02460190  RH  071%=      5-min Rain = 0
KVP1 120256Z 17015KT 25/19 A3005 RMK A01 T02460190  RH  071%=      5-min Rain = 0
KVP1 120257Z 18012KT 25/19 A3005 RMK A01 T02460190  RH  071%=      5-min Rain = 0
KVP1 120258Z 17014KT 25/19 A3005 RMK A01 T02450190  RH  071%=      5-min Rain = 0
KVP1 120259Z 18015KT 25/19 A3005 RMK A01 T02450191  RH  072%=      5-min Rain = 0
KVP1 120300Z 18013G18KT 25/19 A3005 RMK A01 T02450190  RH  072%=      5-min Rain = 0
KVP1 120301Z 18012KT 24/19 A3005 RMK A01 T02440190  RH  072%=      5-min Rain = 0
KVP1 120302Z 18015KT 24/19 A3005 RMK A01 T02440190  RH  072%=      5-min Rain = 0
KVP1 120303Z 17013KT 24/19 A3005 RMK A01 T02440190  RH  072%=      5-min Rain = 0
KVP1 120304Z 17013KT 24/19 A3005 RMK A01 T02440191  RH  072%=      5-min Rain = 0
KVP1 120305Z 17013KT 24/19 A3005 RMK A01 T02430190  RH  072%=      5-min Rain = 0
KVP1 120306Z 18015KT 24/19 A3005 RMK A01 T02430190  RH  072%=      5-min Rain = 0
KVP1 120307Z 17017KT 24/19 A3005 RMK A01 T02430190  RH  072%=      5-min Rain = 0
KVP1 120308Z 18014G19KT 24/19 A3005 RMK A01 T02430190  RH  072%=      5-min Rain = 0
KVP1 120309Z 18017KT 24/19 A3005 RMK A01 T02440191  RH  072%=      5-min Rain = 0
KVP1 120310Z 17014KT 24/19 A3005 RMK A01 T02430190  RH  072%=      5-min Rain = 0
KVP1 120311Z 18015KT 24/19 A3005 RMK A01 T02430191  RH  072%=      5-min Rain = 0
KVP1 120312Z 18015KT 24/19 A3005 RMK A01 T02430191  RH  072%=      5-min Rain = 0
KVP1 120313Z 17015KT 24/19 A3005 RMK A01 T02430191  RH  073%=      5-min Rain = 0
KVP1 120314Z 18013KT 24/19 A3005 RMK A01 T02430191  RH  073%=      5-min Rain = 0
KVP1 120315Z 18015KT 24/19 A3006 RMK A01 T02420191  RH  073%=      5-min Rain = 0
KVP1 120316Z 18014KT 24/19 A3006 RMK A01 T02430191  RH  073%=      5-min Rain = 0
KVP1 120317Z 17013KT 24/19 A3006 RMK A01 T02420190  RH  073%=      5-min Rain = 0
KVP1 120318Z 18014KT 24/19 A3006 RMK A01 T02420191  RH  073%=      5-min Rain = 0
KVP1 120319Z 18014KT 24/19 A3006 RMK A01 T02420191  RH  073%=      5-min Rain = 0
KVP1 120320Z 17012KT 24/19 A3006 RMK A01 T02410191  RH  073%=      5-min Rain = 0
KVP1 120321Z 18015KT 24/19 A3006 RMK A01 T02410191  RH  073%=      5-min Rain = 0
KVP1 120322Z 18013KT 24/19 A3006 RMK A01 T02410191  RH  073%=      5-min Rain = 0
KVP1 120323Z 17012KT 24/19 A3006 RMK A01 T02410191  RH  073%=      5-min Rain = 0
KVP1 120324Z 18013KT 24/19 A3006 RMK A01 T02400191  RH  074%=      5-min Rain = 0
KVP1 120325Z 18012KT 24/19 A3006 RMK A01 T02400191  RH  074%=      5-min Rain = 0
KVP1 120326Z 18013KT 24/19 A3006 RMK A01 T02390191  RH  074%=      5-min Rain = 0
KVP1 120327Z 17014KT 24/19 A3006 RMK A01 T02390191  RH  074%=      5-min Rain = 0
KVP1 120328Z 17014KT 24/19 A3006 RMK A01 T02390191  RH  074%=      5-min Rain = 0
KVP1 120329Z 17012KT 24/19 A3006 RMK A01 T02390191  RH  074%=      5-min Rain = 0
KVP1 120330Z 17013KT 24/19 A3006 RMK A01 T02390191  RH  074%=      5-min Rain = 0
KVP1 120331Z 17014KT 24/19 A3006 RMK A01 T02390191  RH  075%=      5-min Rain = 0
KVP1 120332Z 17013KT 24/19 A3006 RMK A01 T02390191  RH  075%=      5-min Rain = 0
KVP1 120333Z 17012G17KT 24/19 A3006 RMK A01 T02390191  RH  075%=      5-min Rain = 0
KVP1 120334Z 17015KT 24/19 A3006 RMK A01 T02380191  RH  075%=      5-min Rain = 0
KVP1 120335Z 17014KT 24/19 A3006 RMK A01 T02380191  RH  075%=      5-min Rain = 0
KVP1 120336Z 17013KT 24/19 A3006 RMK A01 T02390192  RH  075%=      5-min Rain = 0
KVP1 120337Z 17014KT 24/19 A3006 RMK A01 T02380192  RH  075%=      5-min Rain = 0
KVP1 120338Z 17013KT 24/19 A3005 RMK A01 T02380191  RH  075%=      5-min Rain = 0
KVP1 120339Z 16015KT 24/19 A3005 RMK A01 T02380191  RH  075%=      5-min Rain = 0
KVP1 120340Z 17013G18KT 24/19 A3005 RMK A01 T02380192  RH  075%=      5-min Rain = 0
KVP1 120341Z 17012KT 24/19 A3006 RMK A01 T02380192  RH  075%=      5-min Rain = 0
KVP1 120342Z 17014G19KT 24/19 A3006 RMK A01 T02380192  RH  075%=      5-min Rain = 0
KVP1 120343Z 17013KT 24/19 A3005 RMK A01 T02370192  RH  075%=      5-min Rain = 0
KVP1 120344Z 17014KT 24/19 A3006 RMK A01 T02380192  RH  075%=      5-min Rain = 0
KVP1 120345Z 17012KT 24/19 A3006 RMK A01 T02370191  RH  075%=      5-min Rain = 0
KVP1 120346Z 17012KT 24/19 A3006 RMK A01 T02370191  RH  076%=      5-min Rain = 0
KVP1 120347Z 17012KT 24/19 A3006 RMK A01 T02370192  RH  076%=      5-min Rain = 0
KVP1 120348Z 17012KT 24/19 A3006 RMK A01 T02360191  RH  076%=      5-min Rain = 0
KVP1 120349Z 17014KT 24/19 A3006 RMK A01 T02360191  RH  076%=      5-min Rain = 0
KVP1 120350Z 17013KT 24/19 A3006 RMK A01 T02360191  RH  076%=      5-min Rain = 0
KVP1 120351Z 17013KT 24/19 A3006 RMK A01 T02360191  RH  076%=      5-min Rain = 0
KVP1 120352Z 17013KT 24/19 A3006 RMK A01 T02360191  RH  076%=      5-min Rain = 0
KVP1 120353Z 17012KT 24/19 A3006 RMK A01 T02360192  RH  076%=      5-min Rain = 0
KVP1 120354Z 17014KT 24/19 A3006 RMK A01 T02360191  RH  076%=      5-min Rain = 0
KVP1 120355Z 17010KT 24/19 A3006 RMK A01 T02360192  RH  076%=      5-min Rain = 0
KVP1 120356Z 17012KT 24/19 A3006 RMK A01 T02350191  RH  076%=      5-min Rain = 0
KVP1 120357Z 17015KT 24/19 A3006 RMK A01 T02350191  RH  076%=      5-min Rain = 0
KVP1 120358Z 17015KT 24/19 A3006 RMK A01 T02350191  RH  076%=      5-min Rain = 0
KVP1 120359Z 17015KT 24/19 A3006 RMK A01 T02360191  RH  076%=      5-min Rain = 0
KVP1 120400Z 17013KT 24/19 A3006 RMK A01 T02360191  RH  076%=      5-min Rain = 0
KVP1 120401Z 17014KT 24/19 A3006 RMK A01 T02360191  RH  076%=      5-min Rain = 0
KVP1 120402Z 17014KT 24/19 A3006 RMK A01 T02350191  RH  076%=      5-min Rain = 0
KVP1 120403Z 17015G21KT 24/19 A3006 RMK A01 T02360191  RH  076%=      5-min Rain = 0
KVP1 120404Z 18014KT 24/19 A3006 RMK A01 T02360191  RH  076%=      5-min Rain = 0
KVP1 120405Z 17013KT 24/19 A3006 RMK A01 T02360191  RH  076%=      5-min Rain = 0
KVP1 120406Z 17014KT 24/19 A3006 RMK A01 T02350191  RH  076%=      5-min Rain = 0
KVP1 120407Z 17013KT 24/19 A3006 RMK A01 T02350191  RH  076%=      5-min Rain = 0
KVP1 120408Z 17012KT 24/19 A3006 RMK A01 T02350191  RH  076%=      5-min Rain = 0
KVP1 120409Z 17013KT 24/19 A3006 RMK A01 T02350191  RH  076%=      5-min Rain = 0
KVP1 120410Z 17013KT 23/19 A3006 RMK A01 T02340191  RH  076%=      5-min Rain = 0
KVP1 120411Z 17013KT 23/19 A3006 RMK A01 T02340191  RH  076%=      5-min Rain = 0
KVP1 120412Z 17014G19KT 23/19 A3006 RMK A01 T02340191  RH  077%=      5-min Rain = 0
KVP1 120413Z 17015KT 23/19 A3006 RMK A01 T02340191  RH  077%=      5-min Rain = 0
KVP1 120414Z 17015KT 23/19 A3006 RMK A01 T02340190  RH  076%=      5-min Rain = 0
KVP1 120415Z 17013KT 23/19 A3006 RMK A01 T02340190  RH  076%=      5-min Rain = 0
KVP1 120416Z 17012KT 23/19 A3006 RMK A01 T02340190  RH  076%=      5-min Rain = 0
KVP1 120417Z 17015KT 23/19 A3006 RMK A01 T02340191  RH  077%=      5-min Rain = 0
KVP1 120418Z 17013KT 23/19 A3006 RMK A01 T02340190  RH  077%=      5-min Rain = 0
KVP1 120419Z 17013KT 23/19 A3006 RMK A01 T02340191  RH  077%=      5-min Rain = 0
KVP1 120420Z 17012KT 23/19 A3006 RMK A01 T02330190  RH  077%=      5-min Rain = 0
KVP1 120421Z 17013KT 23/19 A3006 RMK A01 T02330191  RH  077%=      5-min Rain = 0
KVP1 120422Z 17014KT 23/19 A3006 RMK A01 T02330191  RH  077%=      5-min Rain = 0
KVP1 120423Z 17015KT 23/19 A3006 RMK A01 T02330191  RH  077%=      5-min Rain = 0
KVP1 120424Z 17011KT 23/19 A3006 RMK A01 T02330191  RH  077%=      5-min Rain = 0
KVP1 120425Z 17012KT 23/19 A3006 RMK A01 T02330190  RH  077%=      5-min Rain = 0
KVP1 120426Z 17013G18KT 23/19 A3006 RMK A01 T02320190  RH  077%=      5-min Rain = 0
KVP1 120427Z 17014G20KT 23/19 A3006 RMK A01 T02320190  RH  077%=      5-min Rain = 0
KVP1 120428Z 17013KT 23/19 A3006 RMK A01 T02330190  RH  077%=      5-min Rain = 0
KVP1 120429Z 17010KT 23/19 A3006 RMK A01 T02330190  RH  077%=      5-min Rain = 0
KVP1 120430Z 17014G19KT 23/19 A3006 RMK A01 T02320190  RH  077%=      5-min Rain = 0
KVP1 120431Z 17013KT 23/19 A3006 RMK A01 T02320191  RH  077%=      5-min Rain = 0
KVP1 120432Z 17012KT 23/19 A3006 RMK A01 T02320190  RH  077%=      5-min Rain = 0
KVP1 120433Z 17014KT 23/19 A3006 RMK A01 T02330191  RH  077%=      5-min Rain = 0
KVP1 120434Z 17016KT 23/19 A3006 RMK A01 T02320190  RH  077%=      5-min Rain = 0
KVP1 120435Z 17014KT 23/19 A3006 RMK A01 T02320190  RH  077%=      5-min Rain = 0
KVP1 120436Z 18013KT 23/19 A3006 RMK A01 T02320190  RH  077%=      5-min Rain = 0
KVP1 120437Z 18012KT 23/19 A3006 RMK A01 T02320190  RH  077%=      5-min Rain = 0
KVP1 120438Z 17012KT 23/19 A3006 RMK A01 T02320191  RH  077%=      5-min Rain = 0
KVP1 120439Z 17014KT 23/19 A3006 RMK A01 T02320191  RH  078%=      5-min Rain = 0
KVP1 120440Z 17013KT 23/19 A3006 RMK A01 T02320191  RH  078%=      5-min Rain = 0
KVP1 120441Z 17012KT 23/19 A3006 RMK A01 T02320191  RH  078%=      5-min Rain = 0
KVP1 120442Z 17013KT 23/19 A3006 RMK A01 T02320191  RH  078%=      5-min Rain = 0
KVP1 120443Z 17014KT 23/19 A3007 RMK A01 T02320191  RH  078%=      5-min Rain = 0
KVP1 120444Z 17013KT 23/19 A3006 RMK A01 T02320191  RH  078%=      5-min Rain = 0
KVP1 120445Z 17011KT 23/19 A3006 RMK A01 T02310191  RH  078%=      5-min Rain = 0
KVP1 120446Z 17013KT 23/19 A3007 RMK A01 T02310190  RH  078%=      5-min Rain = 0
KVP1 120447Z 18011KT 23/19 A3007 RMK A01 T02310190  RH  078%=      5-min Rain = 0
KVP1 120448Z 17014G19KT 23/19 A3007 RMK A01 T02310191  RH  078%=      5-min Rain = 0
KVP1 120449Z 17014KT 23/19 A3007 RMK A01 T02310191  RH  078%=      5-min Rain = 0
KVP1 120450Z 17012KT 23/19 A3007 RMK A01 T02310191  RH  078%=      5-min Rain = 0
KVP1 120451Z 18014KT 23/19 A3007 RMK A01 T02310190  RH  078%=      5-min Rain = 0
KVP1 120452Z 18014KT 23/19 A3007 RMK A01 T02310190  RH  078%=      5-min Rain = 0
KVP1 120453Z 18014KT 23/19 A3007 RMK A01 T02310191  RH  078%=      5-min Rain = 0
KVP1 120454Z 18014KT 23/19 A3007 RMK A01 T02310190  RH  078%=      5-min Rain = 0
KVP1 120455Z 18013KT 23/19 A3007 RMK A01 T02310190  RH  078%=      5-min Rain = 0
KVP1 120456Z 18015KT 23/19 A3007 RMK A01 T02310190  RH  078%=      5-min Rain = 0
KVP1 120457Z 18014KT 23/19 A3007 RMK A01 T02310191  RH  078%=      5-min Rain = 0
KVP1 120458Z 18012KT 23/19 A3007 RMK A01 T02310190  RH  078%=      5-min Rain = 0
KVP1 120459Z 17014KT 23/19 A3007 RMK A01 T02310191  RH  078%=      5-min Rain = 0

Page generated in 0.1652 seconds.